| time (UTC) | temp C | wind direction | speed KPH | gust KPH | rain 1hr cm | rain 24hr cm | rain mn cm | humidity % | barometer mb |
| 20260505153343 | 2 | 297 | 6.4 | 11.3 | 0.00 | 0.56 | 0.28 | 89 | 1014.1 |
| 20260505153231 | 2 | 290 | 4.8 | 11.3 | 0.00 | 0.56 | 0.28 | 89 | 1014.2 |
| 20260505153143 | 2 | 275 | 4.8 | 12.9 | 0.00 | 0.56 | 0.28 | 89 | 1014.2 |
| 20260505153133 | 2 | 270 | 6.4 | 12.9 | 0.00 | 0.56 | 0.28 | 89 | 1014.1 |
| 20260505152919 | 2 | 291 | 6.4 | 12.9 | 0.00 | 0.56 | 0.28 | 89 | 1014.2 |
| 20260505152839 | 2 | 292 | 4.8 | 12.9 | 0.00 | 0.56 | 0.28 | 90 | 1014.1 |
| 20260505152723 | 2 | 297 | 4.8 | 12.9 | 0.00 | 0.56 | 0.28 | 90 | 1014.1 |
| 20260505152626 | 2 | 281 | 3.2 | 12.9 | 0.00 | 0.56 | 0.28 | 90 | 1014.2 |
| 20260505152544 | 2 | 257 | 3.2 | 12.9 | 0.00 | 0.56 | 0.28 | 90 | 1014.1 |
| 20260505152441 | 2 | 190 | 3.2 | 12.9 | 0.00 | 0.56 | 0.28 | 89 | 1014.2 |
| 20260505152323 | 2 | 307 | 3.2 | 12.9 | 0.00 | 0.56 | 0.28 | 89 | 1014.2 |
| 20260505152236 | 2 | 268 | 1.6 | 8.0 | 0.00 | 0.56 | 0.28 | 89 | 1014.2 |
| 20260505152129 | 2 | 236 | 3.2 | 9.7 | 0.00 | 0.56 | 0.28 | 89 | 1014.2 |
| 20260505152027 | 2 | 262 | 4.8 | 9.7 | 0.00 | 0.56 | 0.28 | 89 | 1014.2 |
| 20260505151917 | 2 | 256 | 4.8 | 9.7 | 0.00 | 0.56 | 0.28 | 90 | 1014.2 |
| 20260505151840 | 2 | 289 | 4.8 | 9.7 | 0.00 | 0.56 | 0.28 | 90 | 1014.1 |
| 20260505151740 | 2 | 301 | 3.2 | 9.7 | 0.00 | 0.56 | 0.28 | 90 | 1014.2 |
| 20260505151654 | 2 | 290 | 3.2 | 9.7 | 0.00 | 0.56 | 0.28 | 89 | 1014.2 |
| 20260505151639 | 2 | 281 | 4.8 | 9.7 | 0.00 | 0.56 | 0.28 | 89 | 1014.1 |
| 20260505151435 | 2 | 318 | 6.4 | 9.7 | 0.00 | 0.56 | 0.28 | 89 | 1014.2 |
| 20260505151343 | 2 | 298 | 8.0 | 11.3 | 0.00 | 0.56 | 0.28 | 89 | 1014.1 |
| 20260505151219 | 2 | 313 | 8.0 | 11.3 | 0.00 | 0.56 | 0.28 | 89 | 1014.2 |
| 20260505151133 | 2 | 292 | 4.8 | 11.3 | 0.00 | 0.56 | 0.28 | 89 | 1014.2 |
| 20260505151023 | 2 | 289 | 3.2 | 11.3 | 0.00 | 0.56 | 0.28 | 90 | 1014.2 |
| 20260505150933 | 2 | 299 | 3.2 | 11.3 | 0.00 | 0.56 | 0.28 | 90 | 1014.1 |
| 20260505150841 | 2 | 240 | 3.2 | 11.3 | 0.00 | 0.56 | 0.28 | 90 | 1014.2 |
| 20260505150740 | 2 | 279 | 3.2 | 11.3 | 0.00 | 0.56 | 0.28 | 90 | 1014.1 |
| 20260505150637 | 2 | 294 | 4.8 | 11.3 | 0.03 | 0.56 | 0.28 | 90 | 1014.2 |
| 20260505150537 | 2 | 285 | 6.4 | 11.3 | 0.03 | 0.56 | 0.28 | 90 | 1014.1 |
| 20260505150424 | 2 | 273 | 4.8 | 11.3 | 0.03 | 0.56 | 0.28 | 90 | 1014.2 |
| 20260505150337 | 2 | 275 | 4.8 | 11.3 | 0.03 | 0.56 | 0.28 | 90 | 1014.2 |
| 20260505150219 | 2 | 300 | 4.8 | 11.3 | 0.03 | 0.56 | 0.28 | 90 | 1014.1 |
| 20260505150211 | 2 | 279 | 3.2 | 11.3 | 0.03 | 0.56 | 0.28 | 90 | 1014.2 |
| 20260505150143 | 2 | 299 | 1.6 | 9.7 | 0.03 | 0.56 | 0.28 | 90 | 1014.1 |
| 20260505140629 | 2 | 275 | 8.0 | 16.1 | 0.00 | 0.53 | 0.23 | 89 | 1014.5 |
| 20260505140526 | 2 | 281 | 8.0 | 16.1 | 0.00 | 0.53 | 0.23 | 89 | 1014.6 |
| 20260505140443 | 2 | 283 | 9.7 | 16.1 | 0.00 | 0.53 | 0.23 | 89 | 1014.5 |
| 20260505140339 | 2 | 271 | 9.7 | 16.1 | 0.00 | 0.53 | 0.23 | 90 | 1014.5 |
| 20260505140225 | 2 | 299 | 8.0 | 16.1 | 0.00 | 0.53 | 0.23 | 90 | 1014.5 |
| 20260505140201 | 2 | 225 | 8.0 | 16.1 | 0.00 | 0.53 | 0.23 | 89 | 1014.6 |
| 20260505140149 | 2 | 239 | 9.7 | 16.1 | 0.00 | 0.53 | 0.23 | 90 | 1014.4 |
| 20260505130230 | 2 | 311 | 6.4 | 17.7 | 0.00 | 0.53 | 0.23 | 89 | 1013.9 |
| 20260505130202 | 2 | 202 | 11.3 | 17.7 | 0.00 | 0.53 | 0.23 | 88 | 1013.9 |
| 20260505130148 | 2 | 227 | 11.3 | 19.3 | 0.00 | 0.53 | 0.23 | 89 | 1013.9 |
| 20260505125024 | 2 | 281 | 8.0 | 14.5 | 0.00 | 0.53 | 0.23 | 89 | 1013.3 |
| 20260505124939 | 2 | 253 | 9.7 | 16.1 | 0.00 | 0.53 | 0.23 | 89 | 1013.3 |
| 20260505124837 | 2 | 251 | 9.7 | 16.1 | 0.03 | 0.53 | 0.23 | 89 | 1013.2 |
| 20260505124742 | 2 | 267 | 8.0 | 16.1 | 0.03 | 0.53 | 0.23 | 89 | 1013.2 |
| 20260505124648 | 2 | 221 | 6.4 | 16.1 | 0.03 | 0.53 | 0.23 | 89 | 1013.2 |
| 20260505124642 | 2 | 193 | 8.0 | 16.1 | 0.03 | 0.53 | 0.23 | 89 | 1013.2 |
| 20260505124432 | 2 | 240 | 8.0 | 16.1 | 0.03 | 0.53 | 0.23 | 89 | 1013.3 |
| 20260505124341 | 2 | 181 | 9.7 | 16.1 | 0.03 | 0.53 | 0.23 | 89 | 1013.3 |
| 20260505124238 | 2 | 232 | 8.0 | 16.1 | 0.03 | 0.53 | 0.23 | 89 | 1013.2 |
| 20260505124124 | 2 | 209 | 6.4 | 19.3 | 0.03 | 0.53 | 0.23 | 89 | 1013.2 |
| 20260505124039 | 2 | 294 | 8.0 | 19.3 | 0.03 | 0.53 | 0.23 | 89 | 1013.2 |
| 20260505123931 | 2 | 250 | 9.7 | 19.3 | 0.03 | 0.53 | 0.23 | 89 | 1013.2 |
| 20260505123824 | 2 | 251 | 11.3 | 22.5 | 0.03 | 0.53 | 0.23 | 89 | 1013.2 |
| 20260505123725 | 2 | 234 | 12.9 | 24.1 | 0.03 | 0.53 | 0.23 | 89 | 1013.0 |
| 20260505123645 | 2 | 267 | 9.7 | 24.1 | 0.03 | 0.53 | 0.23 | 89 | 1013.0 |
| 20260505123531 | 2 | 289 | 8.0 | 24.1 | 0.03 | 0.53 | 0.23 | 89 | 1013.0 |
| 20260505123440 | 2 | 196 | 9.7 | 24.1 | 0.05 | 0.53 | 0.23 | 89 | 1013.1 |
| 20260505123328 | 2 | 277 | 11.3 | 24.1 | 0.05 | 0.53 | 0.23 | 88 | 1013.1 |
| 20260505123241 | 2 | 247 | 9.7 | 24.1 | 0.05 | 0.53 | 0.23 | 88 | 1013.1 |
| 20260505123147 | 2 | 269 | 14.5 | 24.1 | 0.05 | 0.53 | 0.23 | 88 | 1013.0 |
| 20260505123132 | 2 | 281 | 17.7 | 24.1 | 0.05 | 0.53 | 0.23 | 88 | 1013.0 |
| 20260505122941 | 2 | 281 | 14.5 | 24.1 | 0.05 | 0.53 | 0.23 | 88 | 1013.1 |
| 20260505122837 | 2 | 269 | 9.7 | 22.5 | 0.08 | 0.53 | 0.23 | 88 | 1013.2 |
| 20260505122728 | 2 | 246 | 9.7 | 22.5 | 0.08 | 0.53 | 0.23 | 88 | 1013.1 |
| 20260505122629 | 2 | 290 | 11.3 | 22.5 | 0.08 | 0.53 | 0.23 | 88 | 1013.0 |
| 20260505122536 | 2 | 250 | 9.7 | 19.3 | 0.08 | 0.53 | 0.23 | 88 | 1013.1 |
| 20260505122440 | 2 | 187 | 11.3 | 19.3 | 0.10 | 0.53 | 0.23 | 87 | 1013.0 |
| 20260505122342 | 2 | 261 | 12.9 | 19.3 | 0.10 | 0.53 | 0.23 | 87 | 1013.0 |
| 20260505122247 | 2 | 200 | 11.3 | 19.3 | 0.10 | 0.53 | 0.23 | 88 | 1013.0 |
| 20260505122141 | 2 | 242 | 12.9 | 19.3 | 0.10 | 0.53 | 0.23 | 87 | 1013.0 |
| 20260505122019 | 3 | 252 | 9.7 | 17.7 | 0.10 | 0.53 | 0.23 | 88 | 1013.0 |
| 20260505121929 | 3 | 215 | 6.4 | 19.3 | 0.10 | 0.53 | 0.23 | 88 | 1013.1 |
| 20260505121834 | 3 | 286 | 8.0 | 19.3 | 0.10 | 0.53 | 0.23 | 88 | 1013.0 |
| 20260505121724 | 3 | 201 | 6.4 | 19.3 | 0.10 | 0.53 | 0.23 | 88 | 1013.0 |
| 20260505121659 | 3 | 272 | 4.8 | 19.3 | 0.10 | 0.53 | 0.23 | 88 | 1013.1 |
| 20260505121657 | 3 | 202 | 8.0 | 20.9 | 0.10 | 0.53 | 0.23 | 88 | 1013.0 |
| 20260505121419 | 3 | 243 | 9.7 | 20.9 | 0.10 | 0.53 | 0.23 | 87 | 1013.0 |
| 20260505121341 | 3 | 298 | 9.7 | 20.9 | 0.10 | 0.53 | 0.23 | 87 | 1013.0 |
| 20260505121228 | 3 | 204 | 9.7 | 20.9 | 0.10 | 0.53 | 0.23 | 87 | 1013.0 |
| 20260505121144 | 3 | 254 | 11.3 | 20.9 | 0.10 | 0.53 | 0.23 | 87 | 1013.0 |
| 20260505121037 | 3 | 219 | 11.3 | 25.7 | 0.10 | 0.53 | 0.23 | 87 | 1013.0 |
| 20260505120932 | 3 | 246 | 11.3 | 27.4 | 0.10 | 0.53 | 0.23 | 87 | 1013.0 |
| 20260505120818 | 3 | 324 | 11.3 | 27.4 | 0.10 | 0.53 | 0.23 | 88 | 1013.0 |
| 20260505120733 | 3 | 232 | 11.3 | 27.4 | 0.10 | 0.53 | 0.23 | 88 | 1012.9 |
| 20260505120644 | 3 | 258 | 9.7 | 27.4 | 0.10 | 0.53 | 0.23 | 88 | 1013.0 |
| 20260505120544 | 3 | 250 | 9.7 | 27.4 | 0.10 | 0.53 | 0.23 | 88 | 1012.9 |
| 20260505120428 | 3 | 239 | 9.7 | 27.4 | 0.10 | 0.53 | 0.23 | 88 | 1012.9 |
| 20260505120343 | 3 | 296 | 14.5 | 27.4 | 0.10 | 0.53 | 0.23 | 88 | 1012.8 |
| 20260505120242 | 3 | 233 | 16.1 | 27.4 | 0.10 | 0.53 | 0.23 | 87 | 1012.8 |
| 20260505120231 | 3 | 325 | 12.9 | 25.7 | 0.10 | 0.53 | 0.23 | 88 | 1012.8 |
| 20260505120205 | 3 | 218 | 14.5 | 25.7 | 0.10 | 0.53 | 0.23 | 88 | 1012.8 |
| 20260505115923 | 3 | 248 | 14.5 | 25.7 | 0.10 | 0.53 | 0.23 | 88 | 1012.8 |
| 20260505115833 | 3 | 234 | 12.9 | 25.7 | 0.10 | 0.53 | 0.23 | 88 | 1012.8 |
| 20260505115745 | 3 | 259 | 11.3 | 25.7 | 0.10 | 0.53 | 0.23 | 88 | 1012.7 |
| 20260505115633 | 3 | 278 | 11.3 | 25.7 | 0.10 | 0.53 | 0.23 | 88 | 1012.6 |
| 20260505115531 | 3 | 286 | 12.9 | 25.7 | 0.10 | 0.53 | 0.23 | 88 | 1012.6 |
| 20260505115441 | 3 | 259 | 14.5 | 25.7 | 0.10 | 0.53 | 0.23 | 88 | 1012.6 |
| 20260505115329 | 3 | 253 | 16.1 | 25.7 | 0.10 | 0.53 | 0.23 | 88 | 1012.6 |
| 20260505115221 | 3 | 272 | 16.1 | 25.7 | 0.10 | 0.53 | 0.23 | 88 | 1012.5 |
| 20260505115133 | 3 | 257 | 11.3 | 25.7 | 0.10 | 0.53 | 0.23 | 89 | 1012.7 |
| 20260505115043 | 3 | 288 | 11.3 | 30.6 | 0.10 | 0.53 | 0.23 | 88 | 1012.7 |
| 20260505114942 | 3 | 277 | 11.3 | 30.6 | 0.10 | 0.48 | 0.23 | 88 | 1012.7 |
| 20260505114826 | 3 | 271 | 9.7 | 30.6 | 0.10 | 0.48 | 0.23 | 88 | 1012.5 |
| 20260505114725 | 3 | 261 | 11.3 | 30.6 | 0.10 | 0.48 | 0.23 | 88 | 1012.6 |
| 20260505114723 | 3 | 268 | 12.9 | 30.6 | 0.10 | 0.48 | 0.23 | 87 | 1012.5 |
| 20260505114703 | 3 | 244 | 14.5 | 30.6 | 0.10 | 0.48 | 0.23 | 87 | 1012.6 |
| 20260505114424 | 3 | 299 | 16.1 | 30.6 | 0.10 | 0.48 | 0.23 | 87 | 1012.6 |
| 20260505114325 | 3 | 265 | 19.3 | 30.6 | 0.10 | 0.48 | 0.23 | 87 | 1012.6 |
| 20260505114224 | 3 | 317 | 19.3 | 30.6 | 0.10 | 0.48 | 0.23 | 86 | 1012.5 |
| 20260505114119 | 3 | 284 | 16.1 | 29.0 | 0.10 | 0.48 | 0.23 | 87 | 1012.5 |
| 20260505114023 | 3 | 225 | 17.7 | 27.4 | 0.10 | 0.48 | 0.23 | 87 | 1012.6 |
| 20260505113918 | 3 | 248 | 17.7 | 27.4 | 0.10 | 0.48 | 0.23 | 88 | 1012.5 |
| 20260505113834 | 3 | 265 | 16.1 | 27.4 | 0.10 | 0.48 | 0.23 | 88 | 1012.5 |
| 20260505113722 | 3 | 289 | 16.1 | 27.4 | 0.10 | 0.48 | 0.23 | 87 | 1012.4 |
| 20260505113630 | 3 | 327 | 17.7 | 27.4 | 0.10 | 0.48 | 0.23 | 88 | 1012.5 |
| 20260505113519 | 3 | 267 | 16.1 | 25.7 | 0.08 | 0.48 | 0.20 | 88 | 1012.5 |
| 20260505113436 | 3 | 284 | 16.1 | 25.7 | 0.08 | 0.48 | 0.20 | 88 | 1012.5 |
| 20260505113319 | 3 | 274 | 14.5 | 25.7 | 0.08 | 0.48 | 0.20 | 88 | 1012.5 |
| 20260505113224 | 3 | 219 | 11.3 | 35.4 | 0.10 | 0.48 | 0.20 | 88 | 1012.5 |
| 20260505113216 | 3 | 255 | 12.9 | 35.4 | 0.10 | 0.48 | 0.20 | 87 | 1012.5 |
| 20260505113200 | 3 | 300 | 14.5 | 35.4 | 0.10 | 0.48 | 0.20 | 87 | 1012.5 |
| 20260505112942 | 4 | 265 | 14.5 | 35.4 | 0.08 | 0.46 | 0.18 | 87 | 1012.5 |
| 20260505112825 | 4 | 287 | 12.9 | 35.4 | 0.08 | 0.46 | 0.18 | 87 | 1012.5 |
| 20260505112729 | 4 | 263 | 11.3 | 35.4 | 0.08 | 0.46 | 0.18 | 87 | 1012.5 |
| 20260505112618 | 4 | 308 | 12.9 | 35.4 | 0.08 | 0.46 | 0.18 | 87 | 1012.4 |
| 20260505112526 | 4 | 284 | 17.7 | 35.4 | 0.05 | 0.43 | 0.15 | 87 | 1012.3 |
| 20260505112429 | 4 | 288 | 17.7 | 35.4 | 0.05 | 0.43 | 0.15 | 87 | 1012.4 |
| 20260505112331 | 4 | 299 | 17.7 | 35.4 | 0.05 | 0.43 | 0.15 | 87 | 1012.5 |
| 20260505112229 | 4 | 275 | 14.5 | 24.1 | 0.03 | 0.41 | 0.10 | 87 | 1012.4 |
| 20260505112119 | 4 | 240 | 16.1 | 24.1 | 0.03 | 0.41 | 0.10 | 87 | 1012.4 |
| 20260505112022 | 4 | 283 | 11.3 | 24.1 | 0.03 | 0.41 | 0.10 | 87 | 1012.3 |
| 20260505111922 | 4 | 277 | 9.7 | 24.1 | 0.03 | 0.41 | 0.10 | 87 | 1012.3 |
| 20260505111833 | 4 | 310 | 9.7 | 24.1 | 0.05 | 0.41 | 0.10 | 87 | 1012.3 |
| 20260505111728 | 4 | 245 | 8.0 | 24.1 | 0.05 | 0.41 | 0.10 | 87 | 1012.3 |
| 20260505111722 | 4 | 215 | 8.0 | 24.1 | 0.05 | 0.41 | 0.10 | 87 | 1012.3 |
| 20260505111659 | 4 | 243 | 9.7 | 24.1 | 0.05 | 0.41 | 0.10 | 87 | 1012.3 |
| 20260505111441 | 4 | 275 | 12.9 | 24.1 | 0.05 | 0.41 | 0.10 | 87 | 1012.4 |
| 20260505111344 | 4 | 238 | 11.3 | 24.1 | 0.05 | 0.41 | 0.10 | 86 | 1012.4 |
| 20260505111223 | 4 | 250 | 9.7 | 20.9 | 0.05 | 0.41 | 0.10 | 87 | 1012.3 |
| 20260505111137 | 4 | 280 | 8.0 | 20.9 | 0.05 | 0.41 | 0.10 | 87 | 1012.2 |
| 20260505111032 | 4 | 246 | 8.0 | 20.9 | 0.05 | 0.41 | 0.10 | 87 | 1012.3 |
| 20260505110934 | 4 | 252 | 11.3 | 30.6 | 0.05 | 0.41 | 0.10 | 86 | 1012.2 |
| 20260505110821 | 4 | 286 | 11.3 | 30.6 | 0.08 | 0.41 | 0.10 | 86 | 1012.3 |
| 20260505110726 | 5 | 224 | 9.7 | 30.6 | 0.08 | 0.41 | 0.10 | 87 | 1012.2 |
| 20260505110636 | 5 | 267 | 9.7 | 30.6 | 0.08 | 0.41 | 0.10 | 87 | 1012.2 |
| 20260505110518 | 4 | 235 | 9.7 | 30.6 | 0.08 | 0.41 | 0.10 | 86 | 1012.2 |
| 20260505110423 | 4 | 269 | 9.7 | 30.6 | 0.08 | 0.41 | 0.10 | 86 | 1012.0 |
| 20260505110341 | 5 | 224 | 8.0 | 30.6 | 0.08 | 0.41 | 0.10 | 86 | 1012.1 |
| 20260505110239 | 5 | 268 | 14.5 | 30.6 | 0.08 | 0.41 | 0.10 | 86 | 1012.1 |
| 20260505110231 | 4 | 254 | 19.3 | 30.6 | 0.08 | 0.41 | 0.10 | 85 | 1012.0 |
| 20260505110158 | 5 | 268 | 20.9 | 30.6 | 0.10 | 0.41 | 0.10 | 86 | 1011.9 |
| 20260505102131 | 5 | 268 | 17.7 | 30.6 | 0.10 | 0.36 | 0.10 | 88 | 1010.9 |
| 20260505102040 | 6 | 281 | 12.9 | 27.4 | 0.10 | 0.36 | 0.10 | 88 | 1010.9 |
| 20260505101944 | 6 | 284 | 11.3 | 27.4 | 0.08 | 0.36 | 0.08 | 89 | 1010.9 |
| 20260505101839 | 6 | 270 | 11.3 | 27.4 | 0.08 | 0.36 | 0.08 | 89 | 1010.9 |
| 20260505101732 | 6 | 295 | 11.3 | 27.4 | 0.08 | 0.36 | 0.08 | 88 | 1010.9 |
| 20260505101724 | 6 | 240 | 16.1 | 27.4 | 0.08 | 0.36 | 0.08 | 88 | 1010.9 |
| 20260505101705 | 6 | 270 | 17.7 | 27.4 | 0.08 | 0.36 | 0.08 | 88 | 1010.9 |
| 20260505101442 | 6 | 286 | 16.1 | 27.4 | 0.08 | 0.36 | 0.08 | 88 | 1010.9 |
| 20260505101332 | 6 | 281 | 12.9 | 27.4 | 0.08 | 0.36 | 0.08 | 88 | 1010.9 |
| 20260505101224 | 6 | 280 | 9.7 | 27.4 | 0.08 | 0.36 | 0.08 | 89 | 1011.0 |
| 20260505101127 | 6 | 288 | 9.7 | 17.7 | 0.08 | 0.36 | 0.08 | 89 | 1010.9 |
| 20260505101043 | 6 | 236 | 11.3 | 25.7 | 0.08 | 0.36 | 0.08 | 89 | 1011.0 |
| 20260505100929 | 6 | 165 | 8.0 | 25.7 | 0.05 | 0.33 | 0.05 | 89 | 1010.9 |
| 20260505100844 | 6 | 178 | 6.4 | 25.7 | 0.05 | 0.33 | 0.05 | 89 | 1011.0 |
| 20260505100720 | 6 | 234 | 8.0 | 25.7 | 0.05 | 0.33 | 0.05 | 89 | 1010.9 |
| 20260505100634 | 6 | 195 | 9.7 | 25.7 | 0.05 | 0.33 | 0.05 | 89 | 1010.9 |
| 20260505100531 | 6 | 202 | 6.4 | 25.7 | 0.05 | 0.33 | 0.05 | 89 | 1010.9 |
| 20260505100438 | 6 | 283 | 4.8 | 25.7 | 0.05 | 0.33 | 0.05 | 89 | 1010.9 |
| 20260505100322 | 6 | 219 | 6.4 | 25.7 | 0.05 | 0.33 | 0.05 | 89 | 1010.9 |
| 20260505100235 | 6 | 217 | 12.9 | 25.7 | 0.05 | 0.33 | 0.05 | 89 | 1010.9 |
| 20260505100221 | 6 | 279 | 14.5 | 25.7 | 0.03 | 0.30 | 0.03 | 89 | 1010.8 |
| 20260505100157 | 6 | 202 | 11.3 | 22.5 | 0.03 | 0.30 | 0.03 | 89 | 1010.7 |
| 20260505095944 | 6 | 220 | 12.9 | 22.5 | 0.03 | 0.30 | 0.03 | 89 | 1010.8 |
| 20260505095829 | 6 | 281 | 12.9 | 22.5 | 0.03 | 0.30 | 0.03 | 89 | 1010.7 |
| 20260505095745 | 6 | 248 | 14.5 | 22.5 | 0.03 | 0.30 | 0.03 | 89 | 1010.7 |
| 20260505095638 | 6 | 254 | 11.3 | 22.5 | 0.03 | 0.30 | 0.03 | 89 | 1010.7 |
| 20260505095519 | 6 | 221 | 6.4 | 17.7 | 0.03 | 0.30 | 0.03 | 89 | 1010.8 |
| 20260505095440 | 6 | 231 | 6.4 | 22.5 | 0.03 | 0.30 | 0.03 | 89 | 1010.7 |
| 20260505095317 | 6 | 205 | 8.0 | 22.5 | 0.03 | 0.30 | 0.03 | 89 | 1010.7 |
| 20260505095234 | 6 | 204 | 6.4 | 22.5 | 0.03 | 0.30 | 0.03 | 89 | 1010.7 |
| 20260505095117 | 6 | 205 | 6.4 | 22.5 | 0.03 | 0.30 | 0.03 | 89 | 1010.9 |
| 20260505095038 | 6 | 202 | 8.0 | 22.5 | 0.03 | 0.30 | 0.03 | 89 | 1010.9 |
| 20260505094921 | 6 | 227 | 9.7 | 22.5 | 0.03 | 0.30 | 0.03 | 89 | 1010.9 |
| 20260505094829 | 6 | 215 | 11.3 | 22.5 | 0.03 | 0.30 | 0.03 | 89 | 1010.9 |
| 20260505094736 | 6 | 209 | 9.7 | 22.5 | 0.03 | 0.30 | 0.03 | 89 | 1010.8 |
| 20260505094726 | 6 | 207 | 8.0 | 22.5 | 0.03 | 0.30 | 0.03 | 89 | 1010.7 |
| 20260505094703 | 6 | 186 | 11.3 | 22.5 | 0.03 | 0.30 | 0.03 | 88 | 1010.9 |
| 20260505094423 | 6 | 196 | 11.3 | 22.5 | 0.03 | 0.30 | 0.03 | 88 | 1010.9 |
| 20260505094322 | 6 | 227 | 9.7 | 22.5 | 0.00 | 0.28 | 0.00 | 88 | 1010.8 |
| 20260505094244 | 6 | 221 | 9.7 | 22.5 | 0.00 | 0.28 | 0.00 | 88 | 1010.7 |
| 20260505094144 | 6 | 255 | 9.7 | 22.5 | 0.00 | 0.28 | 0.00 | 88 | 1010.7 |
| 20260505094020 | 6 | 221 | 9.7 | 22.5 | 0.00 | 0.28 | 0.00 | 88 | 1010.6 |
| 20260505093944 | 6 | 192 | 9.7 | 19.3 | 0.00 | 0.28 | 0.00 | 88 | 1010.7 |
| 20260505093821 | 6 | 183 | 11.3 | 19.3 | 0.00 | 0.28 | 0.00 | 88 | 1010.5 |
| 20260505093739 | 6 | 234 | 11.3 | 19.3 | 0.00 | 0.28 | 0.00 | 88 | 1010.5 |
| 20260505093643 | 6 | 219 | 11.3 | 22.5 | 0.00 | 0.28 | 0.00 | 88 | 1010.5 |
| 20260505093526 | 6 | 219 | 11.3 | 22.5 | 0.00 | 0.28 | 0.00 | 88 | 1010.4 |
| 20260505093418 | 6 | 225 | 8.0 | 20.9 | 0.00 | 0.28 | 0.00 | 88 | 1010.7 |
| 20260505093318 | 6 | 173 | 6.4 | 20.9 | 0.00 | 0.28 | 0.00 | 88 | 1010.6 |
| 20260505093219 | 6 | 249 | 6.4 | 20.9 | 0.00 | 0.28 | 0.00 | 88 | 1010.5 |
| 20260505093215 | 6 | 287 | 6.4 | 20.9 | 0.00 | 0.28 | 0.00 | 88 | 1010.6 |
| 20260505093156 | 6 | 217 | 8.0 | 27.4 | 0.00 | 0.28 | 0.00 | 88 | 1010.5 |
| 20260505092941 | 6 | 196 | 9.7 | 27.4 | 0.00 | 0.28 | 0.00 | 87 | 1010.6 |
| 20260505092823 | 6 | 171 | 9.7 | 27.4 | 0.00 | 0.28 | 0.00 | 87 | 1010.6 |
| 20260505092743 | 6 | 201 | 11.3 | 27.4 | 0.00 | 0.28 | 0.00 | 87 | 1010.6 |
| 20260505092616 | 6 | 178 | 9.7 | 27.4 | 0.00 | 0.28 | 0.00 | 87 | 1010.5 |
| 20260505092540 | 6 | 234 | 8.0 | 27.4 | 0.00 | 0.28 | 0.00 | 87 | 1010.5 |
| 20260505092419 | 6 | 267 | 9.7 | 27.4 | 0.00 | 0.28 | 0.00 | 87 | 1010.6 |
| 20260505092330 | 6 | 259 | 12.9 | 27.4 | 0.00 | 0.28 | 0.00 | 87 | 1010.6 |
| 20260505092240 | 6 | 188 | 12.9 | 29.0 | 0.00 | 0.28 | 0.00 | 87 | 1010.6 |
| 20260505092144 | 6 | 195 | 8.0 | 22.5 | 0.00 | 0.28 | 0.00 | 87 | 1010.7 |
| 20260505092038 | 6 | 217 | 9.7 | 22.5 | 0.00 | 0.28 | 0.00 | 87 | 1010.7 |
| 20260505091930 | 6 | 279 | 14.5 | 22.5 | 0.00 | 0.28 | 0.00 | 87 | 1010.7 |
| 20260505091822 | 6 | 217 | 16.1 | 22.5 | 0.00 | 0.28 | 0.00 | 87 | 1010.7 |
| 20260505091758 | 6 | 273 | 14.5 | 22.5 | 0.00 | 0.28 | 0.00 | 86 | 1010.6 |
| 20260505091748 | 6 | 281 | 11.3 | 22.5 | 0.00 | 0.28 | 0.00 | 86 | 1010.5 |
| 20260505091741 | 7 | 276 | 11.3 | 22.5 | 0.00 | 0.28 | 0.00 | 87 | 1010.5 |
| 20260505091415 | 7 | 275 | 8.0 | 22.5 | 0.00 | 0.28 | 0.00 | 86 | 1010.5 |
| 20260505091322 | 7 | 272 | 8.0 | 16.1 | 0.00 | 0.28 | 0.00 | 86 | 1010.5 |
| 20260505091230 | 7 | 213 | 9.7 | 16.1 | 0.00 | 0.28 | 0.00 | 86 | 1010.4 |
| 20260505091144 | 7 | 198 | 8.0 | 16.1 | 0.00 | 0.28 | 0.00 | 86 | 1010.4 |
| 20260505091021 | 7 | 198 | 8.0 | 16.1 | 0.00 | 0.28 | 0.00 | 86 | 1010.4 |
| 20260505090930 | 7 | 211 | 6.4 | 17.7 | 0.00 | 0.28 | 0.00 | 86 | 1010.4 |
| 20260505090826 | 7 | 194 | 4.8 | 17.7 | 0.00 | 0.28 | 0.00 | 86 | 1010.3 |
| 20260505090726 | 7 | 161 | 6.4 | 17.7 | 0.00 | 0.28 | 0.00 | 86 | 1010.4 |
| 20260505090621 | 7 | 215 | 6.4 | 17.7 | 0.00 | 0.28 | 0.00 | 85 | 1010.4 |
| 20260505090531 | 7 | 210 | 9.7 | 17.7 | 0.00 | 0.28 | 0.00 | 84 | 1010.4 |
| 20260505090428 | 7 | 205 | 9.7 | 17.7 | 0.00 | 0.28 | 0.00 | 84 | 1010.4 |
| 20260505090331 | 7 | 222 | 8.0 | 16.1 | 0.00 | 0.28 | 0.00 | 84 | 1010.4 |
| 20260505090234 | 7 | 287 | 9.7 | 17.7 | 0.00 | 0.28 | 0.00 | 85 | 1010.4 |
| 20260505090226 | 7 | 257 | 8.0 | 19.3 | 0.00 | 0.28 | 0.00 | 85 | 1010.3 |
| 20260505090207 | 8 | 198 | 8.0 | 19.3 | 0.00 | 0.28 | 0.00 | 85 | 1010.2 |
| 20260505085926 | 8 | 195 | 9.7 | 19.3 | 0.00 | 0.28 | 0.00 | 85 | 1010.2 |
| 20260505085818 | 8 | 267 | 9.7 | 19.3 | 0.00 | 0.28 | 0.00 | 85 | 1010.1 |
| 20260505085730 | 8 | 252 | 8.0 | 19.3 | 0.00 | 0.28 | 0.00 | 84 | 1010.1 |
| 20260505085646 | 8 | 218 | 8.0 | 19.3 | 0.00 | 0.28 | 0.00 | 84 | 1010.1 |
| 20260505085529 | 8 | 188 | 11.3 | 19.3 | 0.00 | 0.28 | 0.00 | 83 | 1010.0 |
| 20260505085433 | 8 | 190 | 12.9 | 19.3 | 0.00 | 0.28 | 0.00 | 84 | 1010.1 |
| 20260505085333 | 9 | 229 | 11.3 | 20.9 | 0.00 | 0.28 | 0.00 | 85 | 1010.0 |
| 20260505085233 | 9 | 215 | 11.3 | 17.7 | 0.00 | 0.28 | 0.00 | 85 | 1010.0 |
| 20260505085118 | 9 | 325 | 9.7 | 16.1 | 0.00 | 0.28 | 0.00 | 86 | 1010.1 |
| 20260505085039 | 9 | 286 | 8.0 | 16.1 | 0.00 | 0.28 | 0.00 | 86 | 1010.1 |
| 20260505084929 | 9 | 214 | 6.4 | 16.1 | 0.00 | 0.28 | 0.00 | 86 | 1010.1 |
| 20260505084830 | 9 | 196 | 4.8 | 16.1 | 0.00 | 0.28 | 0.00 | 86 | 1010.1 |
| 20260505084721 | 9 | 243 | 4.8 | 16.1 | 0.00 | 0.28 | 0.00 | 86 | 1010.2 |
| 20260505084709 | 9 | 215 | 6.4 | 16.1 | 0.00 | 0.28 | 0.00 | 86 | 1010.2 |
| 20260505084650 | 9 | 159 | 9.7 | 16.1 | 0.00 | 0.28 | 0.00 | 86 | 1010.2 |
| 20260505084423 | 9 | 183 | 11.3 | 17.7 | 0.00 | 0.28 | 0.00 | 86 | 1010.2 |
| 20260505084317 | 9 | 134 | 9.7 | 17.7 | 0.00 | 0.28 | 0.00 | 86 | 1010.2 |
| 20260505084230 | 9 | 165 | 8.0 | 17.7 | 0.00 | 0.28 | 0.00 | 86 | 1010.2 |
| 20260505084130 | 9 | 163 | 6.4 | 17.7 | 0.00 | 0.28 | 0.00 | 86 | 1010.2 |
| 20260505084019 | 9 | 158 | 6.4 | 17.7 | 0.00 | 0.28 | 0.00 | 85 | 1010.2 |
| 20260505083938 | 9 | 180 | 8.0 | 17.7 | 0.00 | 0.28 | 0.00 | 85 | 1010.2 |
| 20260505083827 | 9 | 220 | 8.0 | 17.7 | 0.00 | 0.28 | 0.00 | 85 | 1010.2 |
| 20260505083743 | 9 | 196 | 9.7 | 17.7 | 0.00 | 0.28 | 0.00 | 85 | 1010.2 |
| 20260505083638 | 9 | 226 | 9.7 | 17.7 | 0.00 | 0.28 | 0.00 | 85 | 1010.3 |
| 20260505083532 | 9 | 195 | 8.0 | 19.3 | 0.00 | 0.28 | 0.00 | 84 | 1010.3 |
| 20260505083422 | 10 | 229 | 4.8 | 12.9 | 0.00 | 0.28 | 0.00 | 84 | 1010.4 |
| 20260505083335 | 9 | 202 | 6.4 | 11.3 | 0.00 | 0.28 | 0.00 | 84 | 1010.4 |
| 20260505083231 | 9 | 226 | 6.4 | 11.3 | 0.00 | 0.28 | 0.00 | 84 | 1010.4 |
| 20260505083217 | 9 | 207 | 6.4 | 11.3 | 0.00 | 0.28 | 0.00 | 84 | 1010.3 |
| 20260505083135 | 9 | 243 | 8.0 | 11.3 | 0.00 | 0.28 | 0.00 | 84 | 1010.4 |
| 20260505082938 | 9 | 212 | 6.4 | 11.3 | 0.00 | 0.28 | 0.00 | 84 | 1010.3 |
| 20260505082838 | 9 | 227 | 4.8 | 8.0 | 0.00 | 0.28 | 0.00 | 84 | 1010.4 |
| 20260505082722 | 9 | 216 | 3.2 | 6.4 | 0.00 | 0.28 | 0.00 | 84 | 1010.5 |
| 20260505082634 | 9 | 204 | 3.2 | 6.4 | 0.00 | 0.28 | 0.00 | 85 | 1010.5 |
| 20260505082521 | 9 | 235 | 3.2 | 4.8 | 0.00 | 0.28 | 0.00 | 85 | 1010.4 |
| 20260505082416 | 9 | 246 | 3.2 | 4.8 | 0.00 | 0.28 | 0.00 | 85 | 1010.5 |
| 20260505082344 | 9 | 247 | 1.6 | 4.8 | 0.00 | 0.28 | 0.00 | 85 | 1010.4 |
| 20260505082227 | 9 | 247 | 1.6 | 4.8 | 0.00 | 0.28 | 0.00 | 85 | 1010.3 |
| 20260505082122 | 9 | 244 | 1.6 | 3.2 | 0.00 | 0.28 | 0.00 | 84 | 1010.4 |
| 20260505082027 | 9 | 241 | 1.6 | 3.2 | 0.00 | 0.28 | 0.00 | 84 | 1010.4 |
| 20260505081918 | 9 | 242 | 0.0 | 3.2 | 0.00 | 0.28 | 0.00 | 84 | 1010.4 |
| 20260505081829 | 9 | 246 | 0.0 | 3.2 | 0.00 | 0.28 | 0.00 | 84 | 1010.4 |
| 20260505081729 | 9 | 248 | 0.0 | 3.2 | 0.00 | 0.28 | 0.00 | 84 | 1010.4 |
| 20260505081724 | 9 | 253 | 0.0 | 3.2 | 0.00 | 0.28 | 0.00 | 84 | 1010.5 |
| 20260505081706 | 9 | 255 | 0.0 | 3.2 | 0.00 | 0.28 | 0.00 | 84 | 1010.5 |
| 20260505081433 | 9 | 259 | 0.0 | 3.2 | 0.00 | 0.28 | 0.00 | 85 | 1010.4 |
| 20260505081327 | 9 | 258 | 1.6 | 3.2 | 0.00 | 0.28 | 0.00 | 85 | 1010.4 |
| 20260505081240 | 9 | 249 | 1.6 | 3.2 | 0.00 | 0.28 | 0.00 | 85 | 1010.4 |
| 20260505081116 | 9 | 213 | 1.6 | 3.2 | 0.00 | 0.28 | 0.00 | 85 | 1010.4 |
| 20260505081042 | 9 | 201 | 1.6 | 3.2 | 0.00 | 0.28 | 0.00 | 85 | 1010.3 |
| 20260505080920 | 9 | 187 | 1.6 | 3.2 | 0.00 | 0.28 | 0.00 | 86 | 1010.4 |
| 20260505080820 | 9 | 163 | 1.6 | 3.2 | 0.00 | 0.28 | 0.00 | 86 | 1010.4 |
| 20260505080724 | 9 | 141 | 1.6 | 3.2 | 0.00 | 0.28 | 0.00 | 86 | 1010.4 |
| 20260505080630 | 9 | 123 | 0.0 | 3.2 | 0.00 | 0.28 | 0.00 | 86 | 1010.4 |
| 20260505080538 | 9 | 74 | 0.0 | 1.6 | 0.00 | 0.28 | 0.00 | 87 | 1010.4 |
| 20260505080418 | 9 | 61 | 0.0 | 0.0 | 0.00 | 0.28 | 0.00 | 87 | 1010.4 |
| 20260505080328 | 9 | 61 | 0.0 | 0.0 | 0.00 | 0.28 | 0.00 | 87 | 1010.3 |
| 20260505080256 | 9 | 61 | 0.0 | 0.0 | 0.00 | 0.28 | 0.00 | 87 | 1010.3 |
| 20260505080248 | 8 | 61 | 0.0 | 0.0 | 0.00 | 0.28 | 0.00 | 87 | 1010.2 |
| 20260505080229 | 8 | 61 | 0.0 | 0.0 | 0.00 | 0.28 | 0.00 | 87 | 1010.3 |
| 20260505075941 | 8 | 61 | 0.0 | 0.0 | 0.00 | 0.28 | 0.00 | 87 | 1010.2 |
| 20260505075826 | 8 | 61 | 0.0 | 0.0 | 0.00 | 0.28 | 0.00 | 87 | 1010.2 |
| 20260505075721 | 8 | 61 | 0.0 | 0.0 | 0.00 | 0.28 | 0.00 | 87 | 1010.2 |
| 20260505075643 | 8 | 61 | 0.0 | 0.0 | 0.00 | 0.28 | 0.00 | 87 | 1010.2 |
| 20260505075539 | 8 | 61 | 0.0 | 0.0 | 0.00 | 0.28 | 0.00 | 87 | 1010.1 |
| 20260505075438 | 8 | 61 | 0.0 | 0.0 | 0.00 | 0.28 | 0.00 | 87 | 1010.2 |
| 20260505075334 | 8 | 61 | 0.0 | 0.0 | 0.00 | 0.28 | 0.00 | 87 | 1010.2 |
| 20260505075223 | 8 | 61 | 0.0 | 0.0 | 0.00 | 0.28 | 0.00 | 87 | 1010.2 |
| 20260505075130 | 8 | 61 | 0.0 | 0.0 | 0.00 | 0.28 | 0.00 | 87 | 1010.3 |
| 20260505075044 | 8 | 61 | 0.0 | 0.0 | 0.00 | 0.28 | 0.00 | 87 | 1010.4 |
| 20260505074920 | 8 | 61 | 0.0 | 1.6 | 0.00 | 0.28 | 0.00 | 87 | 1010.3 |
| 20260505074837 | 8 | 61 | 0.0 | 1.6 | 0.00 | 0.28 | 0.00 | 87 | 1010.3 |
| 20260505074735 | 8 | 61 | 0.0 | 1.6 | 0.00 | 0.28 | 0.00 | 87 | 1010.2 |
| 20260505074721 | 8 | 61 | 0.0 | 1.6 | 0.00 | 0.28 | 0.00 | 87 | 1010.2 |
| 20260505074626 | 8 | 61 | 0.0 | 1.6 | 0.00 | 0.28 | 0.00 | 87 | 1010.3 |
| 20260505074443 | 8 | 61 | 0.0 | 3.2 | 0.00 | 0.28 | 0.00 | 87 | 1010.3 |
| 20260505074340 | 8 | 61 | 0.0 | 3.2 | 0.00 | 0.28 | 0.00 | 87 | 1010.3 |
| 20260505074218 | 8 | 61 | 0.0 | 3.2 | 0.00 | 0.28 | 0.00 | 87 | 1010.3 |
| 20260505074138 | 8 | 61 | 0.0 | 3.2 | 0.00 | 0.28 | 0.00 | 87 | 1010.3 |
| 20260505074035 | 8 | 61 | 0.0 | 3.2 | 0.00 | 0.28 | 0.00 | 87 | 1010.2 |
| 20260505073935 | 8 | 64 | 0.0 | 3.2 | 0.00 | 0.28 | 0.00 | 87 | 1010.3 |
| 20260505073821 | 8 | 68 | 0.0 | 3.2 | 0.00 | 0.28 | 0.00 | 87 | 1010.3 |
| 20260505073723 | 8 | 68 | 0.0 | 3.2 | 0.00 | 0.28 | 0.00 | 87 | 1010.4 |
| 20260505073636 | 8 | 61 | 0.0 | 3.2 | 0.00 | 0.28 | 0.00 | 87 | 1010.3 |
| 20260505073535 | 8 | 59 | 0.0 | 3.2 | 0.00 | 0.28 | 0.00 | 87 | 1010.4 |
| 20260505073445 | 8 | 66 | 0.0 | 3.2 | 0.00 | 0.28 | 0.00 | 87 | 1010.4 |
| 20260505073337 | 8 | 70 | 0.0 | 3.2 | 0.00 | 0.28 | 0.00 | 87 | 1010.4 |
| 20260505073255 | 8 | 77 | 0.0 | 3.2 | 0.00 | 0.28 | 0.00 | 87 | 1010.5 |
| 20260505073243 | 9 | 78 | 0.0 | 3.2 | 0.00 | 0.28 | 0.00 | 87 | 1010.5 |
| 20260505073218 | 8 | 78 | 0.0 | 3.2 | 0.00 | 0.28 | 0.00 | 87 | 1010.5 |
| 20260505072922 | 9 | 80 | 0.0 | 3.2 | 0.00 | 0.28 | 0.00 | 87 | 1010.4 |
| 20260505072831 | 9 | 82 | 0.0 | 3.2 | 0.00 | 0.28 | 0.00 | 88 | 1010.6 |
| 20260505072735 | 9 | 84 | 0.0 | 3.2 | 0.00 | 0.28 | 0.00 | 88 | 1010.5 |
| 20260505072641 | 9 | 93 | 0.0 | 3.2 | 0.00 | 0.28 | 0.00 | 88 | 1010.5 |
| 20260505072542 | 8 | 86 | 0.0 | 3.2 | 0.00 | 0.28 | 0.00 | 88 | 1010.4 |
| 20260505072424 | 9 | 73 | 0.0 | 4.8 | 0.00 | 0.28 | 0.00 | 88 | 1010.5 |
| 20260505072318 | 9 | 73 | 0.0 | 4.8 | 0.00 | 0.28 | 0.00 | 87 | 1010.5 |
| 20260505072238 | 8 | 73 | 0.0 | 4.8 | 0.00 | 0.28 | 0.00 | 87 | 1010.5 |
| 20260505072138 | 8 | 78 | 0.0 | 4.8 | 0.00 | 0.28 | 0.00 | 87 | 1010.5 |
| 20260505072034 | 9 | 78 | 0.0 | 4.8 | 0.00 | 0.28 | 0.00 | 87 | 1010.6 |
| 20260505071935 | 8 | 76 | 0.0 | 4.8 | 0.00 | 0.28 | 0.00 | 87 | 1010.6 |
| 20260505071837 | 8 | 74 | 0.0 | 4.8 | 0.00 | 0.28 | 0.00 | 87 | 1010.7 |
| 20260505071738 | 8 | 74 | 1.6 | 4.8 | 0.00 | 0.28 | 0.00 | 87 | 1010.6 |
| 20260505071719 | 8 | 90 | 1.6 | 4.8 | 0.00 | 0.28 | 0.00 | 87 | 1010.7 |
| 20260505071641 | 8 | 77 | 1.6 | 4.8 | 0.00 | 0.28 | 0.00 | 87 | 1010.6 |
| 20260505071416 | 8 | 82 | 1.6 | 4.8 | 0.00 | 0.28 | 0.00 | 87 | 1010.7 |
| 20260505071327 | 8 | 94 | 1.6 | 4.8 | 0.00 | 0.28 | 0.00 | 87 | 1010.6 |
| 20260505071231 | 8 | 109 | 1.6 | 4.8 | 0.00 | 0.28 | 0.00 | 87 | 1010.8 |
| 20260505071138 | 8 | 94 | 1.6 | 4.8 | 0.00 | 0.28 | 0.00 | 87 | 1010.7 |
| 20260505071021 | 8 | 88 | 1.6 | 4.8 | 0.00 | 0.28 | 0.00 | 87 | 1010.7 |
| 20260505070940 | 8 | 106 | 1.6 | 4.8 | 0.00 | 0.28 | 0.00 | 87 | 1010.7 |
| 20260505070816 | 8 | 94 | 1.6 | 4.8 | 0.00 | 0.28 | 0.00 | 87 | 1010.7 |
| 20260505070717 | 8 | 86 | 1.6 | 4.8 | 0.00 | 0.28 | 0.00 | 87 | 1010.9 |
| 20260505070634 | 8 | 79 | 0.0 | 4.8 | 0.00 | 0.28 | 0.00 | 87 | 1010.8 |
| 20260505070532 | 8 | 90 | 1.6 | 4.8 | 0.00 | 0.28 | 0.00 | 87 | 1010.8 |
| 20260505070418 | 8 | 90 | 1.6 | 4.8 | 0.00 | 0.28 | 0.00 | 87 | 1010.8 |
| 20260505070318 | 8 | 53 | 0.0 | 3.2 | 0.00 | 0.28 | 0.00 | 87 | 1010.8 |
| 20260505070305 | 8 | 41 | 0.0 | 3.2 | 0.00 | 0.28 | 0.00 | 87 | 1010.8 |
| 20260505070257 | 8 | 41 | 0.0 | 3.2 | 0.00 | 0.28 | 0.00 | 87 | 1010.8 |
| 20260505070227 | 8 | 42 | 0.0 | 3.2 | 0.00 | 0.28 | 0.00 | 87 | 1010.7 |
| 20260505065935 | 8 | 42 | 0.0 | 3.2 | 0.00 | 0.28 | 0.00 | 87 | 1010.9 |
| 20260505065840 | 8 | 42 | 0.0 | 4.8 | 0.00 | 0.28 | 0.00 | 87 | 1010.7 |
| 20260505065738 | 8 | 40 | 0.0 | 4.8 | 0.00 | 0.28 | 0.00 | 87 | 1010.7 |
| 20260505065643 | 8 | 41 | 0.0 | 6.4 | 0.00 | 0.28 | 0.00 | 87 | 1010.7 |
| 20260505065520 | 8 | 41 | 0.0 | 6.4 | 0.00 | 0.28 | 0.00 | 87 | 1010.7 |
| 20260505065429 | 8 | 41 | 0.0 | 6.4 | 0.00 | 0.28 | 0.00 | 87 | 1010.7 |
| 20260505065333 | 8 | 60 | 1.6 | 6.4 | 0.00 | 0.28 | 0.00 | 87 | 1010.7 |
| 20260505065222 | 8 | 62 | 0.0 | 6.4 | 0.00 | 0.28 | 0.00 | 87 | 1010.7 |
| 20260505065131 | 8 | 75 | 1.6 | 6.4 | 0.00 | 0.28 | 0.00 | 87 | 1010.6 |
| 20260505065038 | 8 | 78 | 1.6 | 6.4 | 0.00 | 0.28 | 0.00 | 87 | 1010.7 |
| 20260505064944 | 8 | 77 | 3.2 | 6.4 | 0.00 | 0.28 | 0.00 | 87 | 1010.7 |
| 20260505064839 | 8 | 88 | 3.2 | 6.4 | 0.00 | 0.28 | 0.00 | 87 | 1010.6 |
| 20260505064753 | 8 | 106 | 3.2 | 6.4 | 0.00 | 0.28 | 0.00 | 87 | 1010.7 |
| 20260505064742 | 8 | 86 | 1.6 | 6.4 | 0.00 | 0.28 | 0.00 | 87 | 1010.7 |
| 20260505064723 | 8 | 81 | 1.6 | 9.7 | 0.00 | 0.28 | 0.00 | 87 | 1010.7 |
| 20260505064437 | 8 | 49 | 3.2 | 9.7 | 0.00 | 0.28 | 0.00 | 87 | 1010.7 |
| 20260505064331 | 8 | 81 | 3.2 | 9.7 | 0.00 | 0.28 | 0.00 | 87 | 1010.7 |
| 20260505064221 | 8 | 109 | 3.2 | 9.7 | 0.00 | 0.28 | 0.00 | 87 | 1010.7 |
| 20260505064132 | 8 | 80 | 3.2 | 9.7 | 0.00 | 0.28 | 0.00 | 87 | 1010.7 |
| 20260505064033 | 9 | 87 | 1.6 | 9.7 | 0.00 | 0.28 | 0.00 | 87 | 1010.7 |
| 20260505063923 | 9 | 82 | 1.6 | 9.7 | 0.00 | 0.28 | 0.00 | 87 | 1010.7 |
| 20260505063819 | 9 | 81 | 1.6 | 9.7 | 0.00 | 0.28 | 0.00 | 87 | 1010.7 |
| 20260505063726 | 8 | 90 | 1.6 | 9.7 | 0.00 | 0.28 | 0.00 | 86 | 1010.7 |
| 20260505063644 | 8 | 63 | 1.6 | 9.7 | 0.00 | 0.28 | 0.00 | 87 | 1010.7 |
| 20260505063524 | 8 | 76 | 1.6 | 9.7 | 0.00 | 0.28 | 0.00 | 87 | 1010.8 |
| 20260505063429 | 8 | 87 | 1.6 | 9.7 | 0.00 | 0.28 | 0.00 | 87 | 1010.7 |
| 20260505063326 | 9 | 82 | 3.2 | 9.7 | 0.00 | 0.28 | 0.00 | 87 | 1010.7 |
| 20260505063252 | 9 | 66 | 3.2 | 9.7 | 0.00 | 0.28 | 0.00 | 87 | 1010.7 |
| 20260505063240 | 9 | 81 | 1.6 | 9.7 | 0.00 | 0.28 | 0.00 | 87 | 1010.7 |
| 20260505063133 | 9 | 97 | 1.6 | 9.7 | 0.00 | 0.28 | 0.00 | 87 | 1010.6 |
| 20260505062944 | 9 | 119 | 1.6 | 9.7 | 0.00 | 0.28 | 0.00 | 87 | 1010.7 |
| 20260505062834 | 9 | 65 | 3.2 | 9.7 | 0.00 | 0.28 | 0.00 | 87 | 1010.8 |
| 20260505062718 | 9 | 68 | 4.8 | 9.7 | 0.00 | 0.28 | 0.00 | 87 | 1010.7 |
| 20260505062635 | 9 | 82 | 3.2 | 11.3 | 0.00 | 0.28 | 0.00 | 87 | 1010.8 |
| 20260505062544 | 9 | 68 | 1.6 | 3.2 | 0.00 | 0.28 | 0.00 | 87 | 1010.8 |
| 20260505062440 | 9 | 82 | 0.0 | 3.2 | 0.00 | 0.28 | 0.00 | 87 | 1010.8 |
| 20260505062327 | 9 | 60 | 1.6 | 3.2 | 0.00 | 0.28 | 0.00 | 87 | 1010.8 |
| 20260505062233 | 9 | 51 | 1.6 | 9.7 | 0.00 | 0.28 | 0.00 | 87 | 1010.8 |
| 20260505062130 | 9 | 69 | 0.0 | 9.7 | 0.00 | 0.28 | 0.00 | 87 | 1010.9 |
| 20260505062038 | 9 | 59 | 0.0 | 9.7 | 0.00 | 0.28 | 0.00 | 87 | 1010.9 |
| 20260505061942 | 9 | 57 | 0.0 | 9.7 | 0.00 | 0.28 | 0.00 | 87 | 1010.8 |
| 20260505061825 | 9 | 64 | 1.6 | 9.7 | 0.00 | 0.28 | 0.00 | 86 | 1010.8 |
| 20260505061742 | 9 | 64 | 1.6 | 9.7 | 0.00 | 0.28 | 0.00 | 86 | 1010.8 |
| 20260505061733 | 9 | 49 | 1.6 | 9.7 | 0.00 | 0.28 | 0.00 | 86 | 1010.8 |
| 20260505061711 | 9 | 57 | 1.6 | 9.7 | 0.00 | 0.28 | 0.00 | 86 | 1010.8 |
| 20260505061422 | 9 | 59 | 3.2 | 9.7 | 0.00 | 0.28 | 0.00 | 86 | 1010.7 |
| 20260505061328 | 9 | 93 | 3.2 | 6.4 | 0.00 | 0.28 | 0.00 | 86 | 1010.9 |
| 20260505061224 | 9 | 84 | 3.2 | 6.4 | 0.00 | 0.28 | 0.00 | 86 | 1010.8 |
| 20260505061118 | 8 | 81 | 3.2 | 6.4 | 0.00 | 0.28 | 0.00 | 86 | 1010.9 |
| 20260505061035 | 8 | 68 | 1.6 | 6.4 | 0.00 | 0.28 | 0.00 | 86 | 1010.9 |
| 20260505060937 | 8 | 75 | 0.0 | 6.4 | 0.00 | 0.28 | 0.00 | 86 | 1010.8 |
| 20260505060822 | 9 | 73 | 0.0 | 9.7 | 0.00 | 0.28 | 0.00 | 86 | 1010.8 |
| 20260505060723 | 8 | 74 | 1.6 | 9.7 | 0.00 | 0.28 | 0.00 | 86 | 1010.9 |
| 20260505060635 | 8 | 67 | 3.2 | 9.7 | 0.00 | 0.28 | 0.00 | 86 | 1010.9 |
| 20260505060520 | 9 | 71 | 3.2 | 9.7 | 0.00 | 0.28 | 0.00 | 86 | 1010.9 |
| 20260505060427 | 9 | 107 | 3.2 | 9.7 | 0.00 | 0.28 | 0.00 | 86 | 1010.7 |
| 20260505060343 | 8 | 73 | 3.2 | 9.7 | 0.00 | 0.28 | 0.00 | 86 | 1010.8 |
| 20260505060252 | 8 | 84 | 3.2 | 9.7 | 0.00 | 0.28 | 0.00 | 86 | 1010.8 |
| 20260505060240 | 8 | 78 | 3.2 | 9.7 | 0.00 | 0.28 | 0.00 | 86 | 1010.9 |
| 20260505060201 | 8 | 69 | 4.8 | 9.7 | 0.00 | 0.28 | 0.00 | 86 | 1010.9 |
| 20260505055927 | 8 | 98 | 3.2 | 6.4 | 0.00 | 0.28 | 0.28 | 86 | 1010.8 |
| 20260505055818 | 8 | 71 | 3.2 | 6.4 | 0.00 | 0.28 | 0.28 | 86 | 1010.9 |
| 20260505055727 | 8 | 67 | 3.2 | 6.4 | 0.00 | 0.28 | 0.28 | 86 | 1010.9 |
| 20260505055639 | 8 | 116 | 3.2 | 6.4 | 0.00 | 0.28 | 0.28 | 86 | 1010.9 |
| 20260505055525 | 8 | 99 | 3.2 | 6.4 | 0.00 | 0.28 | 0.28 | 86 | 1010.9 |
| 20260505055430 | 8 | 113 | 3.2 | 11.3 | 0.00 | 0.28 | 0.28 | 86 | 1011.1 |
| 20260505055341 | 8 | 94 | 1.6 | 11.3 | 0.00 | 0.28 | 0.28 | 86 | 1011.0 |
| 20260505055221 | 8 | 82 | 1.6 | 11.3 | 0.00 | 0.28 | 0.28 | 86 | 1010.9 |
| 20260505055134 | 8 | 88 | 1.6 | 11.3 | 0.00 | 0.28 | 0.28 | 86 | 1010.9 |
| 20260505055043 | 8 | 96 | 1.6 | 11.3 | 0.00 | 0.28 | 0.28 | 86 | 1010.9 |
| 20260505054927 | 8 | 78 | 1.6 | 11.3 | 0.00 | 0.28 | 0.28 | 86 | 1010.9 |
| 20260505054837 | 8 | 100 | 3.2 | 11.3 | 0.00 | 0.28 | 0.28 | 86 | 1011.1 |
| 20260505054738 | 8 | 98 | 4.8 | 11.3 | 0.00 | 0.28 | 0.28 | 86 | 1011.1 |
| 20260505054725 | 8 | 109 | 4.8 | 11.3 | 0.00 | 0.28 | 0.28 | 86 | 1011.2 |
| 20260505054713 | 8 | 97 | 3.2 | 6.4 | 0.00 | 0.28 | 0.28 | 86 | 1011.2 |
| 20260505054418 | 8 | 111 | 3.2 | 6.4 | 0.00 | 0.28 | 0.28 | 86 | 1011.2 |
| 20260505054342 | 8 | 112 | 3.2 | 6.4 | 0.00 | 0.28 | 0.28 | 86 | 1011.2 |
| 20260505054239 | 8 | 103 | 3.2 | 6.4 | 0.00 | 0.28 | 0.28 | 86 | 1011.1 |
| 20260505054122 | 8 | 81 | 3.2 | 6.4 | 0.00 | 0.28 | 0.28 | 87 | 1010.9 |
| 20260505054025 | 8 | 115 | 3.2 | 6.4 | 0.00 | 0.28 | 0.28 | 87 | 1010.9 |
| 20260505053922 | 8 | 85 | 3.2 | 6.4 | 0.00 | 0.28 | 0.28 | 87 | 1010.8 |
| 20260505053831 | 8 | 78 | 1.6 | 6.4 | 0.00 | 0.28 | 0.28 | 87 | 1010.7 |
| 20260505053720 | 8 | 114 | 1.6 | 6.4 | 0.00 | 0.28 | 0.28 | 87 | 1010.6 |
| 20260505053623 | 8 | 100 | 3.2 | 6.4 | 0.00 | 0.28 | 0.28 | 87 | 1010.7 |
| 20260505053529 | 8 | 101 | 3.2 | 6.4 | 0.00 | 0.28 | 0.28 | 87 | 1010.6 |
| 20260505053426 | 8 | 71 | 3.2 | 6.4 | 0.00 | 0.28 | 0.28 | 86 | 1010.6 |
| 20260505053319 | 8 | 80 | 3.2 | 6.4 | 0.00 | 0.28 | 0.28 | 86 | 1010.6 |
| 20260505053230 | 8 | 79 | 3.2 | 6.4 | 0.00 | 0.28 | 0.28 | 87 | 1010.7 |
| 20260505053216 | 8 | 95 | 3.2 | 6.4 | 0.00 | 0.28 | 0.28 | 86 | 1010.7 |
| 20260505053121 | 8 | 87 | 3.2 | 6.4 | 0.00 | 0.28 | 0.28 | 86 | 1010.7 |
| 20260505052931 | 8 | 92 | 3.2 | 6.4 | 0.00 | 0.28 | 0.28 | 86 | 1010.7 |
| 20260505052844 | 9 | 77 | 3.2 | 6.4 | 0.00 | 0.28 | 0.28 | 86 | 1010.7 |
| 20260505052741 | 8 | 83 | 3.2 | 6.4 | 0.00 | 0.28 | 0.28 | 86 | 1010.7 |
| 20260505052636 | 8 | 88 | 3.2 | 4.8 | 0.00 | 0.28 | 0.28 | 86 | 1010.7 |
| 20260505052521 | 8 | 105 | 3.2 | 4.8 | 0.00 | 0.28 | 0.28 | 86 | 1010.7 |
| 20260505052443 | 8 | 109 | 3.2 | 4.8 | 0.00 | 0.28 | 0.28 | 86 | 1010.7 |
| 20260505052330 | 8 | 109 | 1.6 | 4.8 | 0.00 | 0.28 | 0.28 | 86 | 1010.8 |
| 20260505052230 | 8 | 95 | 1.6 | 4.8 | 0.03 | 0.28 | 0.28 | 86 | 1010.7 |
| 20260505052132 | 8 | 96 | 1.6 | 6.4 | 0.03 | 0.28 | 0.28 | 86 | 1010.7 |
| 20260505052024 | 8 | 106 | 1.6 | 6.4 | 0.03 | 0.28 | 0.28 | 86 | 1010.8 |
| 20260505051932 | 8 | 98 | 1.6 | 6.4 | 0.03 | 0.28 | 0.28 | 86 | 1010.9 |
| 20260505051837 | 8 | 89 | 0.0 | 6.4 | 0.03 | 0.28 | 0.28 | 85 | 1010.8 |
| 20260505051726 | 8 | 76 | 0.0 | 6.4 | 0.03 | 0.28 | 0.28 | 85 | 1010.9 |
| 20260505051719 | 8 | 74 | 1.6 | 6.4 | 0.03 | 0.28 | 0.28 | 85 | 1010.8 |
| 20260505051708 | 8 | 78 | 3.2 | 6.4 | 0.03 | 0.28 | 0.28 | 85 | 1010.8 |
| 20260505051442 | 8 | 85 | 3.2 | 6.4 | 0.03 | 0.28 | 0.28 | 85 | 1010.9 |
| 20260505051325 | 8 | 82 | 3.2 | 6.4 | 0.03 | 0.28 | 0.28 | 86 | 1011.0 |
| 20260505051226 | 8 | 88 | 3.2 | 6.4 | 0.05 | 0.28 | 0.28 | 86 | 1011.0 |
| 20260505051130 | 8 | 77 | 3.2 | 6.4 | 0.05 | 0.28 | 0.28 | 86 | 1011.1 |
| 20260505051026 | 8 | 84 | 3.2 | 6.4 | 0.05 | 0.28 | 0.28 | 86 | 1011.1 |
| 20260505050934 | 8 | 119 | 3.2 | 6.4 | 0.05 | 0.28 | 0.28 | 86 | 1011.1 |
| 20260505050834 | 8 | 59 | 1.6 | 6.4 | 0.05 | 0.28 | 0.28 | 86 | 1011.0 |
| 20260505050720 | 8 | 101 | 1.6 | 6.4 | 0.05 | 0.28 | 0.28 | 85 | 1011.1 |
| 20260505050622 | 8 | 101 | 1.6 | 6.4 | 0.05 | 0.28 | 0.28 | 85 | 1011.1 |
| 20260505050532 | 8 | 107 | 3.2 | 6.4 | 0.05 | 0.28 | 0.28 | 85 | 1011.0 |
| 20260505050430 | 8 | 76 | 3.2 | 6.4 | 0.08 | 0.28 | 0.28 | 85 | 1011.0 |
| 20260505050331 | 8 | 80 | 3.2 | 6.4 | 0.08 | 0.28 | 0.28 | 85 | 1011.1 |
| 20260505050251 | 8 | 78 | 3.2 | 6.4 | 0.08 | 0.28 | 0.28 | 85 | 1010.9 |
| 20260505050242 | 8 | 56 | 3.2 | 6.4 | 0.08 | 0.28 | 0.28 | 85 | 1011.0 |
| 20260505050228 | 8 | 81 | 1.6 | 6.4 | 0.08 | 0.28 | 0.28 | 85 | 1010.9 |
| 20260505041724 | 9 | 165 | 3.2 | 8.0 | 0.20 | 0.23 | 0.23 | 84 | 1011.3 |
| 20260505041721 | 9 | 151 | 3.2 | 8.0 | 0.23 | 0.23 | 0.23 | 84 | 1011.3 |
| 20260505041655 | 9 | 158 | 3.2 | 4.8 | 0.23 | 0.23 | 0.23 | 84 | 1011.4 |
| 20260505041423 | 9 | 166 | 3.2 | 6.4 | 0.23 | 0.23 | 0.23 | 83 | 1011.4 |
| 20260505041323 | 9 | 171 | 3.2 | 6.4 | 0.20 | 0.23 | 0.23 | 83 | 1011.4 |
| 20260505041243 | 9 | 170 | 3.2 | 6.4 | 0.23 | 0.23 | 0.23 | 83 | 1011.4 |
| 20260505041126 | 9 | 185 | 3.2 | 6.4 | 0.23 | 0.23 | 0.23 | 83 | 1011.4 |
| 20260505041025 | 9 | 162 | 3.2 | 6.4 | 0.23 | 0.23 | 0.23 | 84 | 1011.4 |
| 20260505040924 | 9 | 164 | 1.6 | 6.4 | 0.23 | 0.23 | 0.23 | 84 | 1011.4 |
| 20260505040821 | 9 | 178 | 1.6 | 6.4 | 0.23 | 0.23 | 0.23 | 83 | 1011.4 |
| 20260505040734 | 9 | 186 | 3.2 | 6.4 | 0.23 | 0.23 | 0.23 | 83 | 1011.4 |
| 20260505040631 | 9 | 170 | 3.2 | 8.0 | 0.23 | 0.23 | 0.23 | 83 | 1011.4 |
| 20260505040533 | 9 | 140 | 0.0 | 6.4 | 0.20 | 0.20 | 0.20 | 84 | 1011.3 |
| 20260505040433 | 9 | 172 | 0.0 | 11.3 | 0.20 | 0.20 | 0.20 | 83 | 1011.4 |
| 20260505040345 | 9 | 196 | 1.6 | 12.9 | 0.20 | 0.20 | 0.20 | 83 | 1011.2 |
| 20260505040249 | 9 | 192 | 3.2 | 12.9 | 0.20 | 0.20 | 0.20 | 83 | 1011.4 |
| 20260505040247 | 9 | 171 | 3.2 | 12.9 | 0.20 | 0.20 | 0.20 | 82 | 1011.4 |
| 20260505040228 | 9 | 159 | 3.2 | 12.9 | 0.20 | 0.20 | 0.20 | 82 | 1011.4 |
| 20260505035936 | 9 | 164 | 4.8 | 14.5 | 0.20 | 0.20 | 0.20 | 82 | 1011.4 |
| 20260505035830 | 9 | 138 | 4.8 | 14.5 | 0.20 | 0.20 | 0.20 | 82 | 1011.4 |
| 20260505035723 | 9 | 163 | 4.8 | 14.5 | 0.20 | 0.20 | 0.20 | 82 | 1011.4 |
| 20260505035635 | 9 | 161 | 6.4 | 14.5 | 0.18 | 0.18 | 0.18 | 83 | 1011.4 |
| 20260505035532 | 9 | 140 | 3.2 | 14.5 | 0.18 | 0.18 | 0.18 | 83 | 1011.2 |
| 20260505035427 | 9 | 180 | 4.8 | 14.5 | 0.18 | 0.18 | 0.18 | 83 | 1011.3 |
| 20260505035328 | 9 | 173 | 8.0 | 14.5 | 0.18 | 0.18 | 0.18 | 82 | 1011.4 |
| 20260505035238 | 9 | 111 | 9.7 | 14.5 | 0.18 | 0.18 | 0.18 | 82 | 1011.3 |
| 20260505035124 | 9 | 140 | 8.0 | 14.5 | 0.18 | 0.18 | 0.18 | 82 | 1011.3 |
| 20260505035035 | 9 | 160 | 8.0 | 17.7 | 0.18 | 0.18 | 0.18 | 83 | 1011.3 |
| 20260505034930 | 9 | 180 | 6.4 | 17.7 | 0.18 | 0.18 | 0.18 | 83 | 1011.4 |
| 20260505034840 | 9 | 175 | 4.8 | 19.3 | 0.18 | 0.18 | 0.18 | 83 | 1011.3 |
| 20260505034736 | 9 | 167 | 4.8 | 19.3 | 0.18 | 0.18 | 0.18 | 83 | 1011.4 |
| 20260505034730 | 9 | 230 | 6.4 | 19.3 | 0.18 | 0.18 | 0.18 | 83 | 1011.4 |
| 20260505034711 | 9 | 199 | 6.4 | 19.3 | 0.15 | 0.15 | 0.15 | 82 | 1011.3 |
| 20260505034427 | 9 | 150 | 8.0 | 19.3 | 0.15 | 0.15 | 0.15 | 82 | 1011.3 |
| 20260505034341 | 9 | 209 | 9.7 | 19.3 | 0.15 | 0.15 | 0.15 | 82 | 1011.4 |
| 20260505034225 | 9 | 148 | 9.7 | 19.3 | 0.15 | 0.15 | 0.15 | 82 | 1011.3 |
| 20260505034126 | 9 | 151 | 12.9 | 19.3 | 0.15 | 0.15 | 0.15 | 81 | 1011.2 |
| 20260505034039 | 9 | 162 | 11.3 | 20.9 | 0.15 | 0.15 | 0.15 | 81 | 1011.2 |
| 20260505033936 | 9 | 135 | 8.0 | 20.9 | 0.15 | 0.15 | 0.15 | 81 | 1011.4 |
| 20260505033823 | 9 | 214 | 8.0 | 22.5 | 0.15 | 0.15 | 0.15 | 80 | 1011.2 |
| 20260505033722 | 9 | 254 | 8.0 | 22.5 | 0.15 | 0.15 | 0.15 | 80 | 1011.3 |
| 20260505033621 | 10 | 181 | 9.7 | 22.5 | 0.15 | 0.15 | 0.15 | 79 | 1011.4 |
| 20260505033520 | 10 | 215 | 9.7 | 22.5 | 0.15 | 0.15 | 0.15 | 79 | 1011.4 |
| 20260505033445 | 10 | 211 | 9.7 | 22.5 | 0.10 | 0.10 | 0.10 | 79 | 1011.4 |
| 20260505033330 | 10 | 148 | 11.3 | 22.5 | 0.10 | 0.10 | 0.10 | 78 | 1011.5 |
| 20260505033231 | 10 | 201 | 11.3 | 22.5 | 0.10 | 0.10 | 0.10 | 78 | 1011.4 |
| 20260505033223 | 10 | 205 | 12.9 | 22.5 | 0.10 | 0.10 | 0.10 | 77 | 1011.4 |
| 20260505033210 | 10 | 209 | 12.9 | 22.5 | 0.10 | 0.10 | 0.10 | 76 | 1011.4 |
| 20260505032943 | 10 | 244 | 11.3 | 22.5 | 0.10 | 0.10 | 0.10 | 76 | 1011.3 |
| 20260505032830 | 10 | 140 | 11.3 | 22.5 | 0.10 | 0.10 | 0.10 | 76 | 1011.2 |
| 20260505032745 | 10 | 178 | 11.3 | 22.5 | 0.10 | 0.10 | 0.10 | 75 | 1011.2 |
| 20260505032632 | 10 | 165 | 8.0 | 19.3 | 0.10 | 0.10 | 0.10 | 74 | 1011.1 |
| 20260505032537 | 10 | 235 | 6.4 | 24.1 | 0.10 | 0.10 | 0.10 | 74 | 1011.2 |
| 20260505032428 | 10 | 167 | 6.4 | 24.1 | 0.10 | 0.10 | 0.10 | 73 | 1011.2 |
| 20260505032330 | 10 | 171 | 8.0 | 24.1 | 0.10 | 0.10 | 0.10 | 72 | 1011.2 |
| 20260505032226 | 11 | 226 | 9.7 | 24.1 | 0.08 | 0.08 | 0.08 | 71 | 1011.2 |
| 20260505032119 | 11 | 194 | 9.7 | 24.1 | 0.08 | 0.08 | 0.08 | 70 | 1011.2 |
| 20260505032043 | 11 | 217 | 8.0 | 24.1 | 0.08 | 0.08 | 0.08 | 69 | 1011.1 |
| 20260505031931 | 11 | 198 | 9.7 | 24.1 | 0.05 | 0.05 | 0.05 | 68 | 1011.0 |
| 20260505031818 | 11 | 242 | 14.5 | 24.1 | 0.05 | 0.05 | 0.05 | 68 | 1010.8 |
| 20260505031728 | 11 | 173 | 16.1 | 25.7 | 0.03 | 0.03 | 0.03 | 67 | 1010.7 |
| 20260505031707 | 11 | 148 | 14.5 | 25.7 | 0.03 | 0.03 | 0.03 | 66 | 1010.7 |
| 20260505031658 | 11 | 141 | 12.9 | 25.7 | 0.03 | 0.03 | 0.03 | 66 | 1010.7 |
| 20260505031433 | 11 | 211 | 11.3 | 25.7 | 0.03 | 0.03 | 0.03 | 65 | 1010.7 |
| 20260505031337 | 11 | 156 | 12.9 | 25.7 | 0.00 | 0.00 | 0.00 | 64 | 1010.7 |
| 20260505031243 | 12 | 195 | 12.9 | 25.7 | 0.00 | 0.00 | 0.00 | 64 | 1010.7 |
| 20260505031136 | 12 | 176 | 11.3 | 25.7 | 0.00 | 0.00 | 0.00 | 63 | 1010.7 |
| 20260505031032 | 12 | 161 | 12.9 | 25.7 | 0.00 | 0.00 | 0.00 | 62 | 1010.7 |
| 20260505030933 | 12 | 175 | 14.5 | 25.7 | 0.00 | 0.00 | 0.00 | 62 | 1010.6 |
| 20260505030823 | 12 | 203 | 12.9 | 17.7 | 0.00 | 0.00 | 0.00 | 61 | 1010.7 |
| 20260505030738 | 12 | 242 | 9.7 | 17.7 | 0.00 | 0.00 | 0.00 | 62 | 1010.7 |
| 20260505030645 | 12 | 198 | 9.7 | 17.7 | 0.00 | 0.00 | 0.00 | 61 | 1010.6 |
| 20260505030538 | 12 | 150 | 11.3 | 17.7 | 0.00 | 0.00 | 0.00 | 61 | 1010.5 |
| 20260505030425 | 12 | 144 | 8.0 | 16.1 | 0.00 | 0.00 | 0.00 | 61 | 1010.4 |
| 20260505030318 | 12 | 167 | 6.4 | 12.9 | 0.00 | 0.00 | 0.00 | 61 | 1010.4 |
| 20260505030305 | 12 | 168 | 4.8 | 12.9 | 0.00 | 0.00 | 0.00 | 61 | 1010.4 |
| 20260505030257 | 12 | 190 | 4.8 | 11.3 | 0.00 | 0.00 | 0.00 | 61 | 1010.4 |
| 20260505030233 | 12 | 217 | 4.8 | 11.3 | 0.00 | 0.00 | 0.00 | 60 | 1010.4 |
| 20260505025938 | 12 | 225 | 4.8 | 11.3 | 0.00 | 0.00 | 0.00 | 61 | 1010.2 |
| 20260505025842 | 12 | 203 | 4.8 | 8.0 | 0.00 | 0.00 | 0.00 | 61 | 1010.2 |
| 20260505025729 | 12 | 221 | 4.8 | 11.3 | 0.00 | 0.00 | 0.00 | 61 | 1010.2 |
| 20260505025645 | 12 | 175 | 3.2 | 11.3 | 0.00 | 0.00 | 0.00 | 61 | 1010.2 |
| 20260505025522 | 12 | 178 | 1.6 | 11.3 | 0.00 | 0.00 | 0.00 | 61 | 1010.1 |
| 20260505025441 | 12 | 223 | 1.6 | 11.3 | 0.00 | 0.00 | 0.00 | 61 | 1010.0 |
| 20260505025334 | 12 | 260 | 1.6 | 14.5 | 0.00 | 0.00 | 0.00 | 61 | 1010.0 |
| 20260505025219 | 12 | 233 | 4.8 | 14.5 | 0.00 | 0.00 | 0.00 | 59 | 1009.9 |
| 20260505025139 | 12 | 296 | 4.8 | 17.7 | 0.00 | 0.00 | 0.00 | 60 | 1010.0 |
| 20260505025020 | 12 | 277 | 4.8 | 17.7 | 0.00 | 0.00 | 0.00 | 60 | 1010.0 |
| 20260505024940 | 12 | 258 | 6.4 | 17.7 | 0.00 | 0.00 | 0.00 | 60 | 1010.0 |
| 20260505024824 | 12 | 259 | 3.2 | 17.7 | 0.00 | 0.00 | 0.00 | 61 | 1009.9 |
| 20260505024738 | 12 | 288 | 3.2 | 17.7 | 0.00 | 0.00 | 0.00 | 60 | 1009.8 |
| 20260505024725 | 12 | 218 | 6.4 | 17.7 | 0.00 | 0.00 | 0.00 | 60 | 1009.8 |
| 20260505024711 | 12 | 229 | 9.7 | 20.9 | 0.00 | 0.00 | 0.00 | 60 | 1009.8 |
| 20260505024440 | 12 | 246 | 11.3 | 20.9 | 0.00 | 0.00 | 0.00 | 60 | 1009.8 |
| 20260505024341 | 12 | 285 | 11.3 | 20.9 | 0.00 | 0.00 | 0.00 | 60 | 1009.8 |
| 20260505024223 | 12 | 281 | 8.0 | 20.9 | 0.00 | 0.00 | 0.00 | 60 | 1009.8 |
| 20260505024116 | 12 | 247 | 6.4 | 20.9 | 0.00 | 0.00 | 0.00 | 60 | 1009.8 |
| 20260505024044 | 12 | 254 | 9.7 | 20.9 | 0.00 | 0.00 | 0.00 | 60 | 1009.8 |
| 20260505023934 | 12 | 264 | 11.3 | 20.9 | 0.00 | 0.00 | 0.00 | 60 | 1009.7 |
| 20260505023844 | 12 | 300 | 12.9 | 20.9 | 0.00 | 0.00 | 0.00 | 60 | 1009.8 |
| 20260505023732 | 12 | 295 | 14.5 | 20.9 | 0.00 | 0.00 | 0.00 | 59 | 1009.7 |
| 20260505023629 | 12 | 284 | 12.9 | 19.3 | 0.00 | 0.00 | 0.00 | 59 | 1009.7 |
| 20260505023525 | 12 | 266 | 12.9 | 19.3 | 0.00 | 0.00 | 0.00 | 60 | 1009.7 |
| 20260505023442 | 12 | 281 | 12.9 | 19.3 | 0.00 | 0.00 | 0.00 | 60 | 1009.7 |
| 20260505023337 | 12 | 325 | 11.3 | 24.1 | 0.00 | 0.00 | 0.00 | 59 | 1009.6 |
| 20260505023222 | 13 | 297 | 11.3 | 24.1 | 0.00 | 0.00 | 0.00 | 59 | 1009.7 |
| 20260505023211 | 13 | 306 | 9.7 | 24.1 | 0.00 | 0.00 | 0.00 | 58 | 1009.7 |
| 20260505023145 | 13 | 291 | 9.7 | 24.1 | 0.00 | 0.00 | 0.00 | 59 | 1009.5 |
| 20260505022918 | 13 | 278 | 8.0 | 24.1 | 0.00 | 0.00 | 0.00 | 57 | 1009.7 |
| 20260505022844 | 13 | 289 | 11.3 | 24.1 | 0.00 | 0.00 | 0.00 | 57 | 1009.5 |
| 20260505022738 | 13 | 280 | 12.9 | 24.1 | 0.00 | 0.00 | 0.00 | 56 | 1009.5 |
| 20260505022644 | 13 | 259 | 16.1 | 24.1 | 0.00 | 0.00 | 0.00 | 56 | 1009.5 |
| 20260505022541 | 13 | 231 | 17.7 | 24.1 | 0.00 | 0.00 | 0.00 | 56 | 1009.4 |
| 20260505022427 | 13 | 280 | 14.5 | 24.1 | 0.00 | 0.00 | 0.00 | 55 | 1009.1 |
| 20260505022339 | 13 | 310 | 9.7 | 24.1 | 0.00 | 0.00 | 0.00 | 53 | 1009.2 |
| 20260505022230 | 13 | 320 | 4.8 | 12.9 | 0.00 | 0.00 | 0.00 | 53 | 1009.4 |
| 20260505022117 | 13 | 290 | 3.2 | 6.4 | 0.00 | 0.00 | 0.00 | 52 | 1009.3 |
| 20260505022031 | 13 | 282 | 1.6 | 6.4 | 0.00 | 0.00 | 0.00 | 53 | 1009.4 |
| 20260505021928 | 13 | 288 | 1.6 | 4.8 | 0.00 | 0.00 | 0.00 | 53 | 1009.3 |
| 20260505021838 | 13 | 284 | 1.6 | 4.8 | 0.00 | 0.00 | 0.00 | 52 | 1009.3 |
| 20260505021737 | 13 | 268 | 1.6 | 4.8 | 0.00 | 0.00 | 0.00 | 53 | 1009.3 |
| 20260505021728 | 13 | 287 | 1.6 | 4.8 | 0.00 | 0.00 | 0.00 | 52 | 1009.3 |
| 20260505021659 | 13 | 250 | 1.6 | 4.8 | 0.00 | 0.00 | 0.00 | 54 | 1009.3 |
| 20260505021420 | 13 | 200 | 1.6 | 4.8 | 0.00 | 0.00 | 0.00 | 53 | 1009.3 |
| 20260505021325 | 13 | 244 | 1.6 | 4.8 | 0.00 | 0.00 | 0.00 | 53 | 1009.3 |
| 20260505021241 | 13 | 307 | 1.6 | 4.8 | 0.00 | 0.00 | 0.00 | 53 | 1009.3 |
| 20260505021121 | 13 | 292 | 1.6 | 4.8 | 0.00 | 0.00 | 0.00 | 54 | 1009.3 |
| 20260505021044 | 13 | 268 | 1.6 | 6.4 | 0.00 | 0.00 | 0.00 | 54 | 1009.3 |
| 20260505020934 | 13 | 267 | 0.0 | 6.4 | 0.00 | 0.00 | 0.00 | 54 | 1009.3 |
| 20260505020839 | 13 | 267 | 1.6 | 6.4 | 0.00 | 0.00 | 0.00 | 54 | 1009.3 |
| 20260505020744 | 13 | 272 | 0.0 | 6.4 | 0.00 | 0.00 | 0.00 | 54 | 1009.3 |
| 20260505020642 | 13 | 267 | 0.0 | 6.4 | 0.00 | 0.00 | 0.00 | 53 | 1009.3 |
| 20260505020525 | 13 | 275 | 1.6 | 6.4 | 0.00 | 0.00 | 0.00 | 54 | 1009.3 |
| 20260505020421 | 13 | 276 | 3.2 | 6.4 | 0.00 | 0.00 | 0.00 | 54 | 1009.4 |
| 20260505020331 | 13 | 277 | 3.2 | 6.4 | 0.00 | 0.00 | 0.00 | 53 | 1009.5 |
| 20260505020250 | 13 | 270 | 3.2 | 6.4 | 0.00 | 0.00 | 0.00 | 54 | 1009.5 |
| 20260505020235 | 13 | 260 | 3.2 | 6.4 | 0.00 | 0.00 | 0.00 | 54 | 1009.5 |
| 20260505020127 | 13 | 312 | 3.2 | 6.4 | 0.00 | 0.00 | 0.00 | 54 | 1009.5 |
| 20260505015924 | 13 | 278 | 3.2 | 6.4 | 0.00 | 0.00 | 0.00 | 55 | 1009.5 |
| 20260505015827 | 13 | 273 | 3.2 | 6.4 | 0.00 | 0.00 | 0.00 | 55 | 1009.5 |
| 20260505015724 | 13 | 295 | 3.2 | 6.4 | 0.00 | 0.00 | 0.00 | 55 | 1009.5 |
| 20260505015639 | 13 | 333 | 1.6 | 4.8 | 0.00 | 0.00 | 0.00 | 56 | 1009.4 |
| 20260505015537 | 13 | 319 | 1.6 | 6.4 | 0.00 | 0.00 | 0.00 | 56 | 1009.4 |
| 20260505015424 | 13 | 309 | 0.0 | 6.4 | 0.00 | 0.00 | 0.00 | 57 | 1009.4 |
| 20260505015334 | 13 | 308 | 0.0 | 6.4 | 0.00 | 0.00 | 0.00 | 57 | 1009.3 |
| 20260505015225 | 13 | 302 | 1.6 | 6.4 | 0.00 | 0.00 | 0.00 | 56 | 1009.3 |
| 20260505015145 | 13 | 300 | 1.6 | 6.4 | 0.00 | 0.00 | 0.00 | 55 | 1009.5 |
| 20260505015042 | 13 | 308 | 1.6 | 6.4 | 0.00 | 0.00 | 0.00 | 57 | 1009.4 |
| 20260505014917 | 13 | 303 | 1.6 | 8.0 | 0.00 | 0.00 | 0.00 | 57 | 1009.4 |
| 20260505014834 | 13 | 304 | 1.6 | 8.0 | 0.00 | 0.00 | 0.00 | 57 | 1009.2 |
| 20260505014748 | 13 | 306 | 3.2 | 8.0 | 0.00 | 0.00 | 0.00 | 58 | 1009.2 |
| 20260505014733 | 13 | 276 | 1.6 | 8.0 | 0.00 | 0.00 | 0.00 | 59 | 1009.2 |
| 20260505014641 | 13 | 349 | 0.0 | 8.0 | 0.00 | 0.00 | 0.00 | 58 | 1009.1 |
| 20260505014434 | 13 | 350 | 0.0 | 8.0 | 0.00 | 0.00 | 0.00 | 58 | 1009.1 |
| 20260505014340 | 13 | 322 | 1.6 | 8.0 | 0.00 | 0.00 | 0.00 | 58 | 1009.1 |
| 20260505014222 | 13 | 302 | 3.2 | 8.0 | 0.00 | 0.00 | 0.00 | 58 | 1009.1 |
| 20260505014118 | 13 | 35 | 4.8 | 8.0 | 0.00 | 0.00 | 0.00 | 57 | 1009.1 |
| 20260505014024 | 13 | 360 | 3.2 | 8.0 | 0.00 | 0.00 | 0.00 | 58 | 1009.0 |
| 20260505013928 | 13 | 350 | 3.2 | 6.4 | 0.00 | 0.00 | 0.00 | 58 | 1009.1 |
| 20260505013835 | 13 | 347 | 3.2 | 6.4 | 0.00 | 0.00 | 0.00 | 59 | 1009.0 |
| 20260505013728 | 13 | 340 | 3.2 | 6.4 | 0.00 | 0.00 | 0.00 | 59 | 1009.0 |
| 20260505013640 | 13 | 333 | 1.6 | 6.4 | 0.00 | 0.00 | 0.00 | 60 | 1008.9 |
| 20260505013544 | 13 | 10 | 0.0 | 6.4 | 0.00 | 0.00 | 0.00 | 60 | 1008.9 |
| 20260505013419 | 13 | 307 | 1.6 | 6.4 | 0.00 | 0.00 | 0.00 | 58 | 1008.9 |
| 20260505013317 | 13 | 297 | 1.6 | 6.4 | 0.00 | 0.00 | 0.00 | 57 | 1008.9 |
| 20260505013224 | 13 | 298 | 3.2 | 6.4 | 0.00 | 0.00 | 0.00 | 57 | 1008.9 |
| 20260505013220 | 13 | 275 | 4.8 | 6.4 | 0.00 | 0.00 | 0.00 | 56 | 1008.9 |
| 20260505013202 | 13 | 277 | 3.2 | 6.4 | 0.00 | 0.00 | 0.00 | 57 | 1008.9 |
| 20260505012929 | 13 | 295 | 3.2 | 6.4 | 0.00 | 0.00 | 0.00 | 57 | 1008.8 |
| 20260505012820 | 13 | 234 | 3.2 | 6.4 | 0.00 | 0.00 | 0.00 | 56 | 1008.9 |
| 20260505012721 | 13 | 258 | 3.2 | 6.4 | 0.00 | 0.00 | 0.00 | 56 | 1009.0 |
| 20260505012620 | 13 | 274 | 3.2 | 6.4 | 0.00 | 0.00 | 0.00 | 57 | 1009.0 |
| 20260505012542 | 13 | 272 | 1.6 | 6.4 | 0.00 | 0.00 | 0.00 | 58 | 1009.0 |
| 20260505012442 | 13 | 263 | 1.6 | 6.4 | 0.00 | 0.00 | 0.00 | 56 | 1009.0 |
| 20260505012317 | 13 | 261 | 3.2 | 8.0 | 0.00 | 0.00 | 0.00 | 57 | 1009.0 |
| 20260505012233 | 13 | 263 | 3.2 | 8.0 | 0.00 | 0.00 | 0.00 | 57 | 1009.0 |
| 20260505012129 | 12 | 273 | 3.2 | 8.0 | 0.00 | 0.00 | 0.00 | 58 | 1009.0 |
| 20260505012036 | 12 | 263 | 3.2 | 8.0 | 0.00 | 0.00 | 0.00 | 59 | 1009.0 |
| 20260505011917 | 12 | 267 | 3.2 | 8.0 | 0.00 | 0.00 | 0.00 | 60 | 1009.0 |
| 20260505011829 | 12 | 234 | 4.8 | 8.0 | 0.00 | 0.00 | 0.00 | 60 | 1008.9 |
| 20260505011730 | 12 | 238 | 4.8 | 8.0 | 0.00 | 0.00 | 0.00 | 58 | 1008.9 |
| 20260505011713 | 12 | 291 | 4.8 | 8.0 | 0.00 | 0.00 | 0.00 | 59 | 1008.9 |
| 20260505011657 | 12 | 277 | 3.2 | 6.4 | 0.00 | 0.00 | 0.00 | 60 | 1008.9 |
| 20260505011421 | 12 | 256 | 3.2 | 6.4 | 0.00 | 0.00 | 0.00 | 62 | 1008.9 |
| 20260505011328 | 12 | 277 | 1.6 | 6.4 | 0.00 | 0.00 | 0.00 | 61 | 1008.9 |
| 20260505011243 | 12 | 321 | 0.0 | 6.4 | 0.00 | 0.00 | 0.00 | 60 | 1008.9 |
| 20260505011121 | 12 | 323 | 1.6 | 6.4 | 0.00 | 0.00 | 0.00 | 60 | 1009.0 |
| 20260505011032 | 12 | 333 | 1.6 | 6.4 | 0.00 | 0.00 | 0.00 | 61 | 1009.0 |
| 20260505010923 | 12 | 324 | 3.2 | 6.4 | 0.00 | 0.00 | 0.00 | 63 | 1009.0 |
| 20260505010844 | 12 | 323 | 3.2 | 6.4 | 0.00 | 0.00 | 0.00 | 62 | 1009.1 |
| 20260505010743 | 12 | 333 | 1.6 | 3.2 | 0.00 | 0.00 | 0.00 | 63 | 1009.1 |
| 20260505010623 | 12 | 349 | 0.0 | 6.4 | 0.00 | 0.00 | 0.00 | 62 | 1009.1 |
| 20260505010521 | 12 | 351 | 0.0 | 6.4 | 0.00 | 0.00 | 0.00 | 61 | 1009.0 |
| 20260505010441 | 12 | 9 | 0.0 | 6.4 | 0.00 | 0.00 | 0.00 | 62 | 1009.0 |
| 20260505010339 | 12 | 5 | 0.0 | 6.4 | 0.00 | 0.00 | 0.00 | 62 | 1009.0 |
| 20260505010258 | 12 | 9 | 0.0 | 6.4 | 0.00 | 0.00 | 0.00 | 62 | 1009.0 |
| 20260505010242 | 12 | 15 | 1.6 | 6.4 | 0.00 | 0.00 | 0.00 | 61 | 1009.0 |
| 20260505010138 | 13 | 19 | 1.6 | 6.4 | 0.00 | 0.00 | 0.00 | 60 | 1009.1 |
| 20260505005927 | 13 | 19 | 3.2 | 6.4 | 0.00 | 0.00 | 0.00 | 60 | 1009.0 |
| 20260505005838 | 13 | 13 | 3.2 | 8.0 | 0.00 | 0.00 | 0.00 | 60 | 1009.0 |
| 20260505005735 | 13 | 13 | 1.6 | 8.0 | 0.00 | 0.00 | 0.00 | 59 | 1009.1 |
| 20260505005619 | 13 | 17 | 1.6 | 12.9 | 0.00 | 0.00 | 0.00 | 59 | 1009.0 |
| 20260505005533 | 13 | 23 | 3.2 | 12.9 | 0.00 | 0.00 | 0.00 | 56 | 1008.9 |
| 20260505005421 | 13 | 43 | 3.2 | 12.9 | 0.00 | 0.00 | 0.00 | 55 | 1009.0 |
| 20260505005347 | 13 | 64 | 1.6 | 12.9 | 0.00 | 0.00 | 0.00 | 55 | 1009.1 |
| 20260505005232 | 13 | 46 | 3.2 | 14.5 | 0.00 | 0.00 | 0.00 | 53 | 1009.0 |
| 20260505005144 | 13 | 76 | 3.2 | 17.7 | 0.00 | 0.00 | 0.00 | 54 | 1009.1 |
| 20260505005027 | 13 | 103 | 4.8 | 19.3 | 0.00 | 0.00 | 0.00 | 53 | 1009.2 |
| 20260505004929 | 13 | 40 | 4.8 | 19.3 | 0.00 | 0.00 | 0.00 | 55 | 1009.4 |
| 20260505004831 | 13 | 65 | 4.8 | 19.3 | 0.00 | 0.00 | 0.00 | 54 | 1009.4 |
| 20260505004759 | 13 | 72 | 6.4 | 19.3 | 0.00 | 0.00 | 0.00 | 52 | 1009.3 |
| 20260505004752 | 13 | 123 | 6.4 | 19.3 | 0.00 | 0.00 | 0.00 | 54 | 1009.5 |
| 20260505004707 | 13 | 109 | 8.0 | 19.3 | 0.00 | 0.00 | 0.00 | 53 | 1009.5 |
| 20260505004427 | 13 | 106 | 12.9 | 19.3 | 0.00 | 0.00 | 0.00 | 52 | 1009.5 |
| 20260505004330 | 14 | 155 | 12.9 | 19.3 | 0.00 | 0.00 | 0.00 | 51 | 1009.5 |
| 20260505004243 | 14 | 159 | 8.0 | 22.5 | 0.00 | 0.00 | 0.00 | 53 | 1009.5 |
| 20260505004129 | 14 | 137 | 4.8 | 24.1 | 0.00 | 0.00 | 0.00 | 53 | 1009.6 |
| 20260505004039 | 15 | 136 | 4.8 | 24.1 | 0.00 | 0.00 | 0.00 | 51 | 1009.7 |
| 20260505003936 | 15 | 94 | 3.2 | 24.1 | 0.00 | 0.00 | 0.00 | 51 | 1009.6 |
| 20260505003837 | 15 | 90 | 3.2 | 24.1 | 0.00 | 0.00 | 0.00 | 50 | 1009.5 |
| 20260505003729 | 15 | 157 | 4.8 | 24.1 | 0.00 | 0.00 | 0.00 | 48 | 1009.5 |
| 20260505003625 | 15 | 171 | 6.4 | 24.1 | 0.00 | 0.00 | 0.00 | 47 | 1009.5 |
| 20260505003544 | 15 | 182 | 9.7 | 24.1 | 0.00 | 0.00 | 0.00 | 45 | 1009.4 |
| 20260505003443 | 15 | 177 | 12.9 | 24.1 | 0.00 | 0.00 | 0.00 | 44 | 1009.4 |
| 20260505003321 | 15 | 148 | 14.5 | 24.1 | 0.00 | 0.00 | 0.00 | 43 | 1009.5 |
| 20260505003258 | 15 | 143 | 16.1 | 19.3 | 0.00 | 0.00 | 0.00 | 42 | 1009.4 |
| 20260505003252 | 16 | 178 | 14.5 | 19.3 | 0.00 | 0.00 | 0.00 | 41 | 1009.3 |
| 20260505003232 | 16 | 167 | 12.9 | 22.5 | 0.00 | 0.00 | 0.00 | 41 | 1009.4 |
| 20260505002929 | 16 | 144 | 11.3 | 19.3 | 0.00 | 0.00 | 0.00 | 40 | 1009.3 |
| 20260505002835 | 16 | 159 | 14.5 | 19.3 | 0.00 | 0.00 | 0.00 | 40 | 1009.3 |
| 20260505002742 | 16 | 149 | 12.9 | 19.3 | 0.00 | 0.00 | 0.00 | 40 | 1009.2 |
| 20260505002641 | 16 | 150 | 9.7 | 19.3 | 0.00 | 0.00 | 0.00 | 40 | 1009.3 |
| 20260505002535 | 16 | 155 | 11.3 | 19.3 | 0.00 | 0.00 | 0.00 | 40 | 1009.3 |
| 20260505002430 | 16 | 177 | 9.7 | 24.1 | 0.00 | 0.00 | 0.00 | 40 | 1009.3 |
| 20260505002343 | 16 | 165 | 9.7 | 24.1 | 0.00 | 0.00 | 0.00 | 40 | 1009.2 |
| 20260505002226 | 16 | 180 | 9.7 | 24.1 | 0.00 | 0.00 | 0.00 | 40 | 1009.2 |
| 20260505002145 | 16 | 223 | 9.7 | 24.1 | 0.00 | 0.00 | 0.00 | 40 | 1009.2 |
| 20260505002026 | 16 | 223 | 11.3 | 24.1 | 0.00 | 0.00 | 0.00 | 39 | 1009.2 |
| 20260505001935 | 16 | 186 | 8.0 | 27.4 | 0.00 | 0.00 | 0.00 | 39 | 1009.1 |
| 20260505001819 | 16 | 169 | 6.4 | 27.4 | 0.00 | 0.00 | 0.00 | 40 | 1009.1 |
| 20260505001753 | 16 | 215 | 11.3 | 27.4 | 0.00 | 0.00 | 0.00 | 40 | 1009.0 |
| 20260505001743 | 16 | 186 | 14.5 | 27.4 | 0.00 | 0.00 | 0.00 | 39 | 1009.0 |
| 20260505001722 | 16 | 173 | 14.5 | 27.4 | 0.00 | 0.00 | 0.00 | 39 | 1009.0 |
| 20260505001421 | 16 | 167 | 14.5 | 27.4 | 0.00 | 0.00 | 0.00 | 39 | 1009.0 |
| 20260505001320 | 16 | 141 | 17.7 | 27.4 | 0.00 | 0.00 | 0.00 | 39 | 1008.9 |
| 20260505001246 | 16 | 183 | 17.7 | 27.4 | 0.00 | 0.00 | 0.00 | 39 | 1008.9 |
| 20260505001123 | 16 | 134 | 16.1 | 29.0 | 0.00 | 0.00 | 0.00 | 39 | 1008.9 |
| 20260505001029 | 16 | 163 | 16.1 | 27.4 | 0.00 | 0.00 | 0.00 | 39 | 1008.9 |
| 20260505000922 | 16 | 171 | 12.9 | 27.4 | 0.00 | 0.00 | 0.00 | 39 | 1008.8 |
| 20260505000833 | 16 | 160 | 14.5 | 27.4 | 0.00 | 0.00 | 0.00 | 39 | 1008.8 |
| 20260505000722 | 16 | 200 | 14.5 | 27.4 | 0.00 | 0.00 | 0.00 | 39 | 1008.8 |
| 20260505000633 | 16 | 173 | 14.5 | 27.4 | 0.00 | 0.00 | 0.00 | 39 | 1008.7 |
| 20260505000526 | 16 | 148 | 14.5 | 27.4 | 0.00 | 0.00 | 0.00 | 39 | 1008.7 |
| 20260505000422 | 16 | 180 | 14.5 | 25.7 | 0.00 | 0.00 | 0.00 | 38 | 1008.7 |
| 20260505000314 | 16 | 275 | 14.5 | 25.7 | 0.00 | 0.00 | 0.00 | 37 | 1008.5 |
| 20260505000310 | 16 | 225 | 9.7 | 25.7 | 0.00 | 0.00 | 0.00 | 37 | 1008.4 |
| 20260505000219 | 16 | 196 | 9.7 | 25.7 | 0.00 | 0.00 | 0.00 | 37 | 1008.3 |
| 20260504235930 | 16 | 211 | 9.7 | 25.7 | 0.00 | 0.00 | 0.00 | 37 | 1008.4 |
| 20260504235838 | 16 | 168 | 11.3 | 25.7 | 0.00 | 0.00 | 0.00 | 37 | 1008.5 |
| 20260504235740 | 16 | 220 | 12.9 | 25.7 | 0.00 | 0.00 | 0.00 | 37 | 1008.4 |
| 20260504235633 | 16 | 167 | 9.7 | 25.7 | 0.00 | 0.00 | 0.00 | 36 | 1008.3 |
| 20260504235542 | 16 | 169 | 8.0 | 14.5 | 0.00 | 0.00 | 0.00 | 36 | 1008.3 |
| 20260504235439 | 16 | 219 | 6.4 | 14.5 | 0.00 | 0.00 | 0.00 | 36 | 1008.3 |
| 20260504235335 | 16 | 188 | 1.6 | 12.9 | 0.00 | 0.00 | 0.00 | 36 | 1008.2 |
| 20260504235233 | 16 | 181 | 3.2 | 12.9 | 0.00 | 0.00 | 0.00 | 36 | 1008.2 |
| 20260504235141 | 16 | 194 | 4.8 | 12.9 | 0.00 | 0.00 | 0.00 | 36 | 1008.3 |
| 20260504235042 | 16 | 192 | 6.4 | 12.9 | 0.00 | 0.00 | 0.00 | 36 | 1008.3 |
| 20260504234918 | 16 | 214 | 6.4 | 16.1 | 0.00 | 0.00 | 0.00 | 35 | 1008.4 |
| 20260504234836 | 16 | 204 | 6.4 | 16.1 | 0.00 | 0.00 | 0.00 | 35 | 1008.5 |
| 20260504234802 | 16 | 185 | 4.8 | 16.1 | 0.00 | 0.00 | 0.00 | 36 | 1008.3 |
| 20260504234753 | 16 | 207 | 3.2 | 16.1 | 0.00 | 0.00 | 0.00 | 36 | 1008.2 |
| 20260504234721 | 16 | 175 | 4.8 | 16.1 | 0.00 | 0.00 | 0.00 | 36 | 1008.2 |
| 20260504234434 | 16 | 271 | 6.4 | 16.1 | 0.00 | 0.00 | 0.00 | 35 | 1008.1 |
| 20260504234328 | 17 | 254 | 6.4 | 16.1 | 0.00 | 0.00 | 0.00 | 35 | 1008.2 |
| 20260504234245 | 17 | 215 | 8.0 | 19.3 | 0.00 | 0.00 | 0.00 | 35 | 1008.1 |
| 20260504234118 | 17 | 209 | 8.0 | 22.5 | 0.00 | 0.00 | 0.00 | 35 | 1008.0 |
| 20260504234035 | 17 | 257 | 6.4 | 22.5 | 0.00 | 0.00 | 0.00 | 35 | 1008.1 |
| 20260504233923 | 17 | 286 | 8.0 | 22.5 | 0.00 | 0.00 | 0.00 | 36 | 1008.1 |
| 20260504233841 | 17 | 196 | 6.4 | 22.5 | 0.00 | 0.00 | 0.00 | 35 | 1008.1 |
| 20260504233721 | 17 | 234 | 4.8 | 22.5 | 0.00 | 0.00 | 0.00 | 35 | 1008.1 |
| 20260504233647 | 17 | 225 | 3.2 | 22.5 | 0.00 | 0.00 | 0.00 | 35 | 1008.1 |
| 20260504233527 | 17 | 204 | 6.4 | 22.5 | 0.00 | 0.00 | 0.00 | 35 | 1008.0 |
| 20260504233439 | 17 | 263 | 11.3 | 22.5 | 0.00 | 0.00 | 0.00 | 35 | 1008.0 |
| 20260504233319 | 17 | 239 | 11.3 | 22.5 | 0.00 | 0.00 | 0.00 | 35 | 1008.1 |
| 20260504233257 | 17 | 229 | 8.0 | 16.1 | 0.00 | 0.00 | 0.00 | 35 | 1007.9 |
| 20260504233246 | 17 | 248 | 8.0 | 16.1 | 0.00 | 0.00 | 0.00 | 35 | 1008.1 |
| 20260504233203 | 17 | 258 | 6.4 | 16.1 | 0.00 | 0.00 | 0.00 | 34 | 1008.1 |
| 20260504232933 | 17 | 303 | 8.0 | 16.1 | 0.00 | 0.00 | 0.00 | 34 | 1008.1 |
| 20260504232817 | 17 | 271 | 8.0 | 16.1 | 0.00 | 0.00 | 0.00 | 35 | 1008.0 |
| 20260504232744 | 17 | 273 | 6.4 | 16.1 | 0.00 | 0.00 | 0.00 | 35 | 1008.1 |
| 20260504232638 | 17 | 275 | 4.8 | 17.7 | 0.00 | 0.00 | 0.00 | 35 | 1008.1 |
| 20260504232522 | 17 | 182 | 6.4 | 19.3 | 0.00 | 0.00 | 0.00 | 35 | 1008.0 |
| 20260504232421 | 17 | 205 | 6.4 | 19.3 | 0.00 | 0.00 | 0.00 | 35 | 1007.9 |
| 20260504232344 | 17 | 191 | 6.4 | 19.3 | 0.00 | 0.00 | 0.00 | 35 | 1007.9 |
| 20260504232225 | 17 | 208 | 4.8 | 25.7 | 0.00 | 0.00 | 0.00 | 35 | 1007.9 |
| 20260504232131 | 17 | 190 | 4.8 | 25.7 | 0.00 | 0.00 | 0.00 | 34 | 1007.9 |
| 20260504232019 | 17 | 263 | 6.4 | 25.7 | 0.00 | 0.00 | 0.00 | 34 | 1007.9 |
| 20260504231930 | 17 | 161 | 9.7 | 25.7 | 0.00 | 0.00 | 0.00 | 35 | 1007.9 |
| 20260504231829 | 17 | 243 | 11.3 | 25.7 | 0.00 | 0.00 | 0.00 | 35 | 1007.9 |
| 20260504231754 | 17 | 178 | 11.3 | 25.7 | 0.00 | 0.00 | 0.00 | 35 | 1007.9 |
| 20260504231743 | 17 | 242 | 11.3 | 25.7 | 0.00 | 0.00 | 0.00 | 35 | 1007.9 |
| 20260504231721 | 17 | 233 | 14.5 | 27.4 | 0.00 | 0.00 | 0.00 | 35 | 1008.0 |
| 20260504231417 | 17 | 234 | 16.1 | 27.4 | 0.00 | 0.00 | 0.00 | 35 | 1008.0 |
| 20260504231329 | 17 | 256 | 14.5 | 27.4 | 0.00 | 0.00 | 0.00 | 35 | 1008.1 |
| 20260504231222 | 17 | 217 | 12.9 | 27.4 | 0.00 | 0.00 | 0.00 | 35 | 1008.0 |
| 20260504231128 | 17 | 219 | 12.9 | 27.4 | 0.00 | 0.00 | 0.00 | 35 | 1008.0 |
| 20260504231022 | 17 | 202 | 14.5 | 27.4 | 0.00 | 0.00 | 0.00 | 35 | 1008.1 |
| 20260504230939 | 17 | 273 | 16.1 | 27.4 | 0.00 | 0.00 | 0.00 | 34 | 1007.9 |
| 20260504230848 | 17 | 261 | 17.7 | 27.4 | 0.00 | 0.00 | 0.00 | 34 | 1007.9 |
| 20260504230734 | 17 | 269 | 16.1 | 27.4 | 0.00 | 0.00 | 0.00 | 34 | 1008.0 |
| 20260504230643 | 17 | 229 | 11.3 | 20.9 | 0.00 | 0.00 | 0.00 | 34 | 1007.9 |
| 20260504230524 | 17 | 244 | 12.9 | 20.9 | 0.00 | 0.00 | 0.00 | 34 | 1007.8 |
| 20260504230434 | 17 | 207 | 12.9 | 20.9 | 0.00 | 0.00 | 0.00 | 34 | 1007.7 |
| 20260504230317 | 17 | 259 | 9.7 | 20.9 | 0.00 | 0.00 | 0.00 | 34 | 1007.7 |
| 20260504230311 | 17 | 292 | 8.0 | 20.9 | 0.00 | 0.00 | 0.00 | 35 | 1007.7 |
| 20260504230215 | 17 | 207 | 11.3 | 20.9 | 0.00 | 0.00 | 0.00 | 34 | 1007.7 |
| 20260504225943 | 17 | 165 | 11.3 | 20.9 | 0.00 | 0.00 | 0.00 | 34 | 1007.6 |
| 20260504225844 | 17 | 209 | 11.3 | 19.3 | 0.00 | 0.00 | 0.00 | 34 | 1007.6 |
| 20260504225720 | 17 | 197 | 11.3 | 30.6 | 0.00 | 0.00 | 0.00 | 34 | 1007.6 |
| 20260504225623 | 17 | 280 | 9.7 | 30.6 | 0.00 | 0.00 | 0.00 | 34 | 1007.7 |
| 20260504225539 | 17 | 246 | 9.7 | 30.6 | 0.00 | 0.00 | 0.00 | 34 | 1007.6 |
| 20260504225430 | 17 | 252 | 6.4 | 30.6 | 0.00 | 0.00 | 0.00 | 34 | 1007.6 |
| 20260504225317 | 17 | 275 | 8.0 | 30.6 | 0.00 | 0.00 | 0.00 | 34 | 1007.6 |
| 20260504225246 | 17 | 222 | 12.9 | 30.6 | 0.00 | 0.00 | 0.00 | 33 | 1007.6 |
| 20260504225144 | 17 | 265 | 16.1 | 30.6 | 0.00 | 0.00 | 0.00 | 33 | 1007.4 |
| 20260504225031 | 17 | 275 | 17.7 | 30.6 | 0.00 | 0.00 | 0.00 | 33 | 1007.4 |
| 20260504224919 | 17 | 252 | 17.7 | 30.6 | 0.00 | 0.00 | 0.00 | 32 | 1007.3 |
| 20260504224809 | 17 | 259 | 14.5 | 29.0 | 0.00 | 0.00 | 0.00 | 32 | 1007.5 |
| 20260504224759 | 17 | 215 | 14.5 | 29.0 | 0.00 | 0.00 | 0.00 | 32 | 1007.5 |
| 20260504224740 | 17 | 242 | 12.9 | 27.4 | 0.00 | 0.00 | 0.00 | 31 | 1007.5 |
| 20260504224428 | 17 | 264 | 14.5 | 27.4 | 0.00 | 0.00 | 0.00 | 31 | 1007.5 |
| 20260504224339 | 17 | 246 | 17.7 | 29.0 | 0.00 | 0.00 | 0.00 | 31 | 1007.4 |
| 20260504224226 | 17 | 300 | 16.1 | 29.0 | 0.00 | 0.00 | 0.00 | 31 | 1007.4 |
| 20260504224124 | 17 | 238 | 17.7 | 29.0 | 0.00 | 0.00 | 0.00 | 31 | 1007.5 |
| 20260504224026 | 17 | 245 | 16.1 | 29.0 | 0.00 | 0.00 | 0.00 | 31 | 1007.6 |
| 20260504223944 | 17 | 279 | 11.3 | 29.0 | 0.00 | 0.00 | 0.00 | 32 | 1007.5 |
| 20260504223829 | 17 | 228 | 12.9 | 29.0 | 0.00 | 0.00 | 0.00 | 32 | 1007.5 |
| 20260504223746 | 17 | 269 | 12.9 | 29.0 | 0.00 | 0.00 | 0.00 | 31 | 1007.5 |
| 20260504223638 | 17 | 286 | 16.1 | 32.2 | 0.00 | 0.00 | 0.00 | 32 | 1007.6 |
| 20260504223538 | 17 | 252 | 17.7 | 32.2 | 0.00 | 0.00 | 0.00 | 31 | 1007.5 |
| 20260504223417 | 17 | 271 | 17.7 | 32.2 | 0.00 | 0.00 | 0.00 | 31 | 1007.5 |
| 20260504223316 | 17 | 279 | 19.3 | 35.4 | 0.00 | 0.00 | 0.00 | 31 | 1007.4 |
| 20260504223314 | 17 | 271 | 17.7 | 35.4 | 0.00 | 0.00 | 0.00 | 31 | 1007.3 |
| 20260504223304 | 17 | 274 | 16.1 | 35.4 | 0.00 | 0.00 | 0.00 | 31 | 1007.4 |
| 20260504223205 | 17 | 281 | 17.7 | 35.4 | 0.00 | 0.00 | 0.00 | 31 | 1007.6 |
| 20260504222930 | 17 | 276 | 20.9 | 35.4 | 0.00 | 0.00 | 0.00 | 31 | 1007.6 |
| 20260504222827 | 17 | 275 | 19.3 | 41.8 | 0.00 | 0.00 | 0.00 | 31 | 1007.6 |
| 20260504222739 | 17 | 292 | 17.7 | 41.8 | 0.00 | 0.00 | 0.00 | 31 | 1007.6 |
| 20260504222636 | 17 | 265 | 19.3 | 41.8 | 0.00 | 0.00 | 0.00 | 32 | 1007.5 |
| 20260504222540 | 17 | 269 | 14.5 | 45.1 | 0.00 | 0.00 | 0.00 | 32 | 1007.4 |
| 20260504222423 | 17 | 259 | 12.9 | 45.1 | 0.00 | 0.00 | 0.00 | 32 | 1007.4 |
| 20260504222323 | 17 | 279 | 14.5 | 45.1 | 0.00 | 0.00 | 0.00 | 32 | 1007.5 |
| 20260504222240 | 17 | 221 | 14.5 | 45.1 | 0.00 | 0.00 | 0.00 | 32 | 1007.6 |
| 20260504222138 | 17 | 218 | 19.3 | 45.1 | 0.00 | 0.00 | 0.00 | 32 | 1007.4 |
| 20260504222024 | 17 | 240 | 24.1 | 45.1 | 0.00 | 0.00 | 0.00 | 32 | 1007.6 |
| 20260504221923 | 17 | 228 | 24.1 | 45.1 | 0.00 | 0.00 | 0.00 | 32 | 1007.4 |
| 20260504221838 | 17 | 246 | 27.4 | 45.1 | 0.00 | 0.00 | 0.00 | 32 | 1007.3 |
| 20260504221755 | 17 | 281 | 24.1 | 45.1 | 0.00 | 0.00 | 0.00 | 31 | 1007.2 |
| 20260504221748 | 17 | 281 | 19.3 | 30.6 | 0.00 | 0.00 | 0.00 | 31 | 1007.1 |
| 20260504221727 | 17 | 275 | 19.3 | 29.0 | 0.00 | 0.00 | 0.00 | 31 | 1007.1 |
| 20260504221428 | 17 | 290 | 14.5 | 29.0 | 0.00 | 0.00 | 0.00 | 31 | 1007.0 |
| 20260504221334 | 17 | 253 | 11.3 | 27.4 | 0.00 | 0.00 | 0.00 | 31 | 1007.0 |
| 20260504221223 | 17 | 245 | 9.7 | 27.4 | 0.00 | 0.00 | 0.00 | 31 | 1007.1 |
| 20260504221120 | 17 | 128 | 9.7 | 27.4 | 0.00 | 0.00 | 0.00 | 31 | 1007.2 |
| 20260504221041 | 17 | 237 | 14.5 | 27.4 | 0.00 | 0.00 | 0.00 | 31 | 1007.2 |
| 20260504220945 | 17 | 254 | 16.1 | 35.4 | 0.00 | 0.00 | 0.00 | 31 | 1007.0 |
| 20260504220825 | 17 | 248 | 16.1 | 35.4 | 0.00 | 0.00 | 0.00 | 31 | 1007.2 |
| 20260504220739 | 17 | 240 | 16.1 | 35.4 | 0.00 | 0.00 | 0.00 | 31 | 1007.0 |
| 20260504220644 | 17 | 285 | 14.5 | 35.4 | 0.00 | 0.00 | 0.00 | 31 | 1007.1 |
| 20260504220535 | 17 | 196 | 14.5 | 35.4 | 0.00 | 0.00 | 0.00 | 31 | 1007.2 |
| 20260504220432 | 17 | 291 | 14.5 | 35.4 | 0.00 | 0.00 | 0.00 | 31 | 1007.2 |
| 20260504220327 | 17 | 254 | 12.9 | 35.4 | 0.00 | 0.00 | 0.00 | 31 | 1007.2 |
| 20260504220303 | 17 | 276 | 14.5 | 35.4 | 0.00 | 0.00 | 0.00 | 32 | 1007.1 |
| 20260504220250 | 17 | 232 | 16.1 | 35.4 | 0.00 | 0.00 | 0.00 | 31 | 1007.1 |
| 20260504220145 | 17 | 238 | 12.9 | 29.0 | 0.00 | 0.00 | 0.00 | 32 | 1007.0 |
| 20260504215920 | 17 | 279 | 11.3 | 29.0 | 0.00 | 0.00 | 0.00 | 32 | 1007.0 |
| 20260504215839 | 17 | 269 | 14.5 | 29.0 | 0.00 | 0.00 | 0.00 | 32 | 1007.0 |
| 20260504215720 | 17 | 225 | 16.1 | 29.0 | 0.00 | 0.00 | 0.00 | 31 | 1007.0 |
| 20260504215633 | 17 | 302 | 12.9 | 33.8 | 0.00 | 0.00 | 0.00 | 32 | 1007.0 |
| 20260504215530 | 17 | 214 | 12.9 | 38.6 | 0.00 | 0.00 | 0.00 | 32 | 1007.0 |
| 20260504215431 | 17 | 229 | 16.1 | 38.6 | 0.00 | 0.00 | 0.00 | 31 | 1006.9 |
| 20260504215333 | 18 | 264 | 14.5 | 38.6 | 0.00 | 0.00 | 0.00 | 31 | 1006.8 |
| 20260504215221 | 18 | 232 | 14.5 | 38.6 | 0.00 | 0.00 | 0.00 | 31 | 1006.7 |
| 20260504215121 | 18 | 250 | 19.3 | 38.6 | 0.00 | 0.00 | 0.00 | 31 | 1006.6 |
| 20260504215034 | 18 | 309 | 19.3 | 38.6 | 0.00 | 0.00 | 0.00 | 31 | 1006.7 |
| 20260504214930 | 18 | 242 | 20.9 | 38.6 | 0.00 | 0.00 | 0.00 | 31 | 1006.7 |
| 20260504214819 | 18 | 269 | 20.9 | 38.6 | 0.00 | 0.00 | 0.00 | 30 | 1006.7 |
| 20260504214754 | 18 | 284 | 20.9 | 38.6 | 0.00 | 0.00 | 0.00 | 30 | 1006.6 |
| 20260504214745 | 18 | 227 | 19.3 | 37.0 | 0.00 | 0.00 | 0.00 | 30 | 1006.5 |
| 20260504214729 | 18 | 237 | 16.1 | 37.0 | 0.00 | 0.00 | 0.00 | 29 | 1006.4 |
| 20260504214435 | 18 | 234 | 17.7 | 37.0 | 0.00 | 0.00 | 0.00 | 29 | 1006.5 |
| 20260504214326 | 18 | 256 | 22.5 | 37.0 | 0.00 | 0.00 | 0.00 | 28 | 1006.4 |
| 20260504214240 | 19 | 261 | 24.1 | 37.0 | 0.00 | 0.00 | 0.00 | 27 | 1006.5 |
| 20260504214132 | 19 | 271 | 19.3 | 37.0 | 0.00 | 0.00 | 0.00 | 24 | 1006.5 |
| 20260504214023 | 19 | 273 | 14.5 | 32.2 | 0.00 | 0.00 | 0.00 | 24 | 1006.7 |
| 20260504213916 | 19 | 293 | 12.9 | 25.7 | 0.00 | 0.00 | 0.00 | 24 | 1006.5 |
| 20260504213837 | 19 | 329 | 14.5 | 25.7 | 0.00 | 0.00 | 0.00 | 24 | 1006.3 |
| 20260504213729 | 19 | 250 | 14.5 | 25.7 | 0.00 | 0.00 | 0.00 | 24 | 1006.2 |
| 20260504213633 | 19 | 323 | 11.3 | 25.7 | 0.00 | 0.00 | 0.00 | 24 | 1006.1 |
| 20260504213521 | 19 | 329 | 9.7 | 25.7 | 0.00 | 0.00 | 0.00 | 24 | 1006.2 |
| 20260504213429 | 19 | 246 | 6.4 | 25.7 | 0.00 | 0.00 | 0.00 | 24 | 1006.2 |
| 20260504213335 | 19 | 290 | 9.7 | 25.7 | 0.00 | 0.00 | 0.00 | 24 | 1006.2 |
| 20260504213247 | 19 | 284 | 14.5 | 25.7 | 0.00 | 0.00 | 0.00 | 24 | 1006.2 |
| 20260504213245 | 19 | 281 | 14.5 | 25.7 | 0.00 | 0.00 | 0.00 | 24 | 1006.2 |
| 20260504213216 | 19 | 269 | 14.5 | 25.7 | 0.00 | 0.00 | 0.00 | 24 | 1006.3 |
| 20260504212928 | 19 | 260 | 12.9 | 25.7 | 0.00 | 0.00 | 0.00 | 24 | 1006.4 |
| 20260504212840 | 19 | 277 | 9.7 | 25.7 | 0.00 | 0.00 | 0.00 | 24 | 1006.5 |
| 20260504212732 | 19 | 277 | 8.0 | 25.7 | 0.00 | 0.00 | 0.00 | 24 | 1006.4 |
| 20260504212624 | 19 | 352 | 9.7 | 25.7 | 0.00 | 0.00 | 0.00 | 24 | 1006.5 |
| 20260504212520 | 19 | 235 | 8.0 | 25.7 | 0.00 | 0.00 | 0.00 | 24 | 1006.5 |
| 20260504212444 | 19 | 217 | 8.0 | 25.7 | 0.00 | 0.00 | 0.00 | 24 | 1006.6 |
| 20260504212336 | 19 | 284 | 9.7 | 25.7 | 0.00 | 0.00 | 0.00 | 24 | 1006.6 |
| 20260504212239 | 19 | 276 | 12.9 | 25.7 | 0.00 | 0.00 | 0.00 | 24 | 1006.7 |
| 20260504212140 | 19 | 328 | 11.3 | 27.4 | 0.00 | 0.00 | 0.00 | 24 | 1006.5 |
| 20260504212034 | 19 | 266 | 8.0 | 27.4 | 0.00 | 0.00 | 0.00 | 24 | 1006.7 |
| 20260504211936 | 19 | 13 | 9.7 | 27.4 | 0.00 | 0.00 | 0.00 | 24 | 1006.6 |
| 20260504211839 | 19 | 266 | 9.7 | 27.4 | 0.00 | 0.00 | 0.00 | 24 | 1006.7 |
| 20260504211753 | 19 | 296 | 9.7 | 27.4 | 0.00 | 0.00 | 0.00 | 24 | 1006.7 |
| 20260504211743 | 19 | 269 | 8.0 | 29.0 | 0.00 | 0.00 | 0.00 | 24 | 1006.7 |
| 20260504211726 | 19 | 274 | 6.4 | 29.0 | 0.00 | 0.00 | 0.00 | 25 | 1006.7 |
| 20260504211444 | 19 | 295 | 11.3 | 29.0 | 0.00 | 0.00 | 0.00 | 24 | 1006.8 |
| 20260504211339 | 19 | 263 | 12.9 | 29.0 | 0.00 | 0.00 | 0.00 | 24 | 1006.7 |
| 20260504211245 | 19 | 279 | 9.7 | 29.0 | 0.00 | 0.00 | 0.00 | 24 | 1006.8 |
| 20260504211118 | 19 | 309 | 8.0 | 29.0 | 0.00 | 0.00 | 0.00 | 24 | 1006.9 |
| 20260504211031 | 19 | 265 | 11.3 | 29.0 | 0.00 | 0.00 | 0.00 | 24 | 1006.9 |
| 20260504210937 | 19 | 283 | 14.5 | 29.0 | 0.00 | 0.00 | 0.00 | 24 | 1006.9 |
| 20260504210844 | 19 | 281 | 17.7 | 29.0 | 0.00 | 0.00 | 0.00 | 24 | 1006.9 |
| 20260504210741 | 19 | 285 | 12.9 | 29.0 | 0.00 | 0.00 | 0.00 | 23 | 1006.8 |
| 20260504210640 | 19 | 302 | 9.7 | 19.3 | 0.00 | 0.00 | 0.00 | 25 | 1006.9 |
| 20260504210540 | 19 | 271 | 9.7 | 20.9 | 0.00 | 0.00 | 0.00 | 25 | 1006.9 |
| 20260504210443 | 19 | 294 | 6.4 | 22.5 | 0.00 | 0.00 | 0.00 | 25 | 1006.9 |
| 20260504210318 | 19 | 330 | 6.4 | 22.5 | 0.00 | 0.00 | 0.00 | 25 | 1006.9 |
| 20260504210314 | 19 | 313 | 6.4 | 22.5 | 0.00 | 0.00 | 0.00 | 25 | 1007.0 |
| 20260504210310 | 19 | 277 | 6.4 | 22.5 | 0.00 | 0.00 | 0.00 | 25 | 1007.0 |
| 20260504210237 | 19 | 340 | 9.7 | 22.5 | 0.00 | 0.00 | 0.00 | 25 | 1007.0 |
| 20260504205923 | 19 | 274 | 14.5 | 22.5 | 0.00 | 0.00 | 0.00 | 25 | 1007.0 |
| 20260504205840 | 19 | 273 | 14.5 | 22.5 | 0.00 | 0.00 | 0.00 | 24 | 1007.0 |
| 20260504205723 | 19 | 297 | 14.5 | 25.7 | 0.00 | 0.00 | 0.00 | 25 | 1007.1 |
| 20260504205640 | 19 | 287 | 16.1 | 25.7 | 0.00 | 0.00 | 0.00 | 24 | 1007.1 |
| 20260504205522 | 19 | 294 | 16.1 | 25.7 | 0.00 | 0.00 | 0.00 | 25 | 1007.1 |
| 20260504205428 | 20 | 286 | 14.5 | 25.7 | 0.00 | 0.00 | 0.00 | 25 | 1007.1 |
| 20260504205316 | 20 | 273 | 12.9 | 32.2 | 0.00 | 0.00 | 0.00 | 24 | 1007.0 |
| 20260504205222 | 20 | 296 | 9.7 | 32.2 | 0.00 | 0.00 | 0.00 | 24 | 1007.1 |
| 20260504205121 | 20 | 5 | 11.3 | 32.2 | 0.00 | 0.00 | 0.00 | 24 | 1007.1 |
| 20260504205027 | 20 | 260 | 16.1 | 32.2 | 0.00 | 0.00 | 0.00 | 24 | 1007.0 |
| 20260504204923 | 20 | 263 | 14.5 | 32.2 | 0.00 | 0.00 | 0.00 | 25 | 1007.1 |
| 20260504204824 | 20 | 264 | 14.5 | 32.2 | 0.00 | 0.00 | 0.00 | 25 | 1007.1 |
| 20260504204755 | 20 | 288 | 17.7 | 32.2 | 0.00 | 0.00 | 0.00 | 25 | 1007.0 |
| 20260504204741 | 20 | 269 | 20.9 | 32.2 | 0.00 | 0.00 | 0.00 | 25 | 1006.9 |
| 20260504204650 | 20 | 300 | 19.3 | 30.6 | 0.00 | 0.00 | 0.00 | 25 | 1006.8 |
| 20260504204441 | 20 | 283 | 14.5 | 24.1 | 0.00 | 0.00 | 0.00 | 25 | 1006.9 |
| 20260504204337 | 20 | 238 | 12.9 | 29.0 | 0.00 | 0.00 | 0.00 | 25 | 1007.2 |
| 20260504204242 | 20 | 273 | 16.1 | 30.6 | 0.00 | 0.00 | 0.00 | 26 | 1007.1 |
| 20260504204146 | 19 | 225 | 12.9 | 30.6 | 0.00 | 0.00 | 0.00 | 25 | 1007.1 |
| 20260504204027 | 19 | 292 | 11.3 | 30.6 | 0.00 | 0.00 | 0.00 | 26 | 1007.1 |
| 20260504203941 | 19 | 184 | 14.5 | 30.6 | 0.00 | 0.00 | 0.00 | 26 | 1007.1 |
| 20260504203827 | 19 | 282 | 17.7 | 30.6 | 0.00 | 0.00 | 0.00 | 26 | 1007.0 |
| 20260504203744 | 19 | 299 | 17.7 | 30.6 | 0.00 | 0.00 | 0.00 | 25 | 1007.2 |
| 20260504203623 | 19 | 232 | 17.7 | 30.6 | 0.00 | 0.00 | 0.00 | 25 | 1007.2 |
| 20260504203530 | 19 | 267 | 17.7 | 30.6 | 0.00 | 0.00 | 0.00 | 26 | 1007.3 |
| 20260504203433 | 19 | 234 | 16.1 | 30.6 | 0.00 | 0.00 | 0.00 | 26 | 1007.2 |
| 20260504203315 | 19 | 297 | 11.3 | 25.7 | 0.00 | 0.00 | 0.00 | 26 | 1007.2 |
| 20260504203310 | 19 | 231 | 11.3 | 25.7 | 0.00 | 0.00 | 0.00 | 26 | 1007.2 |
| 20260504203305 | 19 | 262 | 9.7 | 25.7 | 0.00 | 0.00 | 0.00 | 26 | 1007.1 |
| 20260504203231 | 19 | 265 | 11.3 | 25.7 | 0.00 | 0.00 | 0.00 | 26 | 1007.2 |
| 20260504202929 | 19 | 269 | 14.5 | 25.7 | 0.00 | 0.00 | 0.00 | 26 | 1007.1 |
| 20260504202846 | 19 | 244 | 14.5 | 25.7 | 0.00 | 0.00 | 0.00 | 26 | 1007.1 |
| 20260504202726 | 19 | 228 | 16.1 | 25.7 | 0.00 | 0.00 | 0.00 | 26 | 1007.0 |
| 20260504202617 | 19 | 290 | 16.1 | 25.7 | 0.00 | 0.00 | 0.00 | 26 | 1007.1 |
| 20260504202524 | 19 | 257 | 14.5 | 25.7 | 0.00 | 0.00 | 0.00 | 26 | 1007.0 |
| 20260504202432 | 19 | 291 | 11.3 | 25.7 | 0.00 | 0.00 | 0.00 | 26 | 1007.1 |
| 20260504202319 | 19 | 250 | 12.9 | 30.6 | 0.00 | 0.00 | 0.00 | 26 | 1007.1 |
| 20260504202219 | 19 | 280 | 14.5 | 30.6 | 0.00 | 0.00 | 0.00 | 25 | 1007.2 |
| 20260504202123 | 19 | 280 | 11.3 | 30.6 | 0.00 | 0.00 | 0.00 | 25 | 1007.2 |
| 20260504202036 | 19 | 240 | 11.3 | 30.6 | 0.00 | 0.00 | 0.00 | 26 | 1007.2 |
| 20260504201931 | 19 | 201 | 11.3 | 30.6 | 0.00 | 0.00 | 0.00 | 25 | 1007.3 |
| 20260504201816 | 19 | 238 | 8.0 | 30.6 | 0.00 | 0.00 | 0.00 | 25 | 1007.4 |
| 20260504201803 | 18 | 297 | 11.3 | 30.6 | 0.00 | 0.00 | 0.00 | 25 | 1007.4 |
| 20260504201758 | 18 | 286 | 17.7 | 30.6 | 0.00 | 0.00 | 0.00 | 25 | 1007.4 |
| 20260504201736 | 18 | 273 | 16.1 | 30.6 | 0.00 | 0.00 | 0.00 | 25 | 1007.4 |
| 20260504201421 | 18 | 252 | 12.9 | 38.6 | 0.00 | 0.00 | 0.00 | 25 | 1007.4 |
| 20260504201330 | 18 | 232 | 16.1 | 38.6 | 0.00 | 0.00 | 0.00 | 25 | 1007.4 |
| 20260504201233 | 18 | 275 | 19.3 | 38.6 | 0.00 | 0.00 | 0.00 | 25 | 1007.4 |
| 20260504201134 | 18 | 285 | 16.1 | 38.6 | 0.00 | 0.00 | 0.00 | 25 | 1007.3 |
| 20260504201024 | 18 | 288 | 11.3 | 38.6 | 0.00 | 0.00 | 0.00 | 25 | 1007.2 |
| 20260504200937 | 18 | 209 | 11.3 | 38.6 | 0.00 | 0.00 | 0.00 | 25 | 1007.2 |
| 20260504200843 | 18 | 306 | 16.1 | 38.6 | 0.00 | 0.00 | 0.00 | 25 | 1007.2 |
| 20260504200721 | 18 | 316 | 25.7 | 38.6 | 0.00 | 0.00 | 0.00 | 25 | 1007.3 |
| 20260504200641 | 18 | 272 | 27.4 | 38.6 | 0.00 | 0.00 | 0.00 | 25 | 1007.2 |
| 20260504200531 | 18 | 247 | 17.7 | 37.0 | 0.00 | 0.00 | 0.00 | 26 | 1007.1 |
| 20260504200424 | 18 | 305 | 14.5 | 32.2 | 0.00 | 0.00 | 0.00 | 27 | 1007.2 |
| 20260504200317 | 18 | 295 | 22.5 | 32.2 | 0.00 | 0.00 | 0.00 | 27 | 1007.2 |
| 20260504200310 | 18 | 259 | 20.9 | 32.2 | 0.00 | 0.00 | 0.00 | 27 | 1007.3 |
| 20260504200224 | 18 | 279 | 17.7 | 33.8 | 0.00 | 0.00 | 0.00 | 28 | 1007.2 |
| 20260504195944 | 18 | 269 | 16.1 | 33.8 | 0.00 | 0.00 | 0.00 | 27 | 1007.4 |
| 20260504195826 | 18 | 295 | 17.7 | 33.8 | 0.00 | 0.00 | 0.00 | 28 | 1007.3 |
| 20260504195721 | 18 | 242 | 17.7 | 33.8 | 0.00 | 0.00 | 0.00 | 28 | 1007.4 |
| 20260504195640 | 18 | 308 | 19.3 | 33.8 | 0.00 | 0.00 | 0.00 | 27 | 1007.4 |
| 20260504195532 | 18 | 292 | 20.9 | 33.8 | 0.00 | 0.00 | 0.00 | 28 | 1007.5 |
| 20260504195427 | 18 | 238 | 20.9 | 33.8 | 0.00 | 0.00 | 0.00 | 28 | 1007.6 |
| 20260504195333 | 18 | 242 | 22.5 | 33.8 | 0.00 | 0.00 | 0.00 | 28 | 1007.5 |
| 20260504195233 | 18 | 283 | 20.9 | 33.8 | 0.00 | 0.00 | 0.00 | 28 | 1007.6 |
| 20260504195140 | 18 | 259 | 20.9 | 33.8 | 0.00 | 0.00 | 0.00 | 28 | 1007.6 |
| 20260504195027 | 18 | 227 | 17.7 | 29.0 | 0.00 | 0.00 | 0.00 | 28 | 1007.5 |
| 20260504194944 | 18 | 243 | 19.3 | 29.0 | 0.00 | 0.00 | 0.00 | 28 | 1007.7 |
| 20260504194838 | 18 | 252 | 22.5 | 29.0 | 0.00 | 0.00 | 0.00 | 28 | 1007.7 |
| 20260504194743 | 18 | 271 | 17.7 | 27.4 | 0.00 | 0.00 | 0.00 | 28 | 1007.6 |
| 20260504194736 | 18 | 268 | 14.5 | 25.7 | 0.00 | 0.00 | 0.00 | 29 | 1007.7 |
| 20260504194656 | 18 | 286 | 14.5 | 25.7 | 0.00 | 0.00 | 0.00 | 28 | 1007.9 |
| 20260504194436 | 18 | 261 | 16.1 | 25.7 | 0.00 | 0.00 | 0.00 | 28 | 1007.9 |
| 20260504194338 | 18 | 269 | 14.5 | 25.7 | 0.00 | 0.00 | 0.00 | 28 | 1008.0 |
| 20260504194239 | 18 | 262 | 12.9 | 25.7 | 0.00 | 0.00 | 0.00 | 28 | 1007.9 |
| 20260504194141 | 18 | 225 | 14.5 | 25.7 | 0.00 | 0.00 | 0.00 | 28 | 1008.0 |
| 20260504194042 | 18 | 251 | 14.5 | 25.7 | 0.00 | 0.00 | 0.00 | 28 | 1008.1 |
| 20260504193923 | 18 | 252 | 14.5 | 25.7 | 0.00 | 0.00 | 0.00 | 28 | 1008.2 |
| 20260504193823 | 18 | 257 | 12.9 | 25.7 | 0.00 | 0.00 | 0.00 | 28 | 1008.3 |
| 20260504193743 | 18 | 217 | 9.7 | 27.4 | 0.00 | 0.00 | 0.00 | 29 | 1008.0 |
| 20260504193617 | 18 | 239 | 4.8 | 14.5 | 0.00 | 0.00 | 0.00 | 28 | 1008.2 |
| 20260504193542 | 18 | 148 | 4.8 | 16.1 | 0.00 | 0.00 | 0.00 | 29 | 1008.3 |
| 20260504193434 | 18 | 178 | 4.8 | 16.1 | 0.00 | 0.00 | 0.00 | 29 | 1008.3 |
| 20260504193340 | 18 | 74 | 4.8 | 16.1 | 0.00 | 0.00 | 0.00 | 28 | 1008.3 |
| 20260504193256 | 18 | 57 | 6.4 | 16.1 | 0.00 | 0.00 | 0.00 | 28 | 1008.4 |
| 20260504193239 | 18 | 26 | 4.8 | 16.1 | 0.00 | 0.00 | 0.00 | 28 | 1008.4 |
| 20260504193149 | 18 | 112 | 3.2 | 17.7 | 0.00 | 0.00 | 0.00 | 27 | 1008.4 |
| 20260504192944 | 18 | 333 | 1.6 | 20.9 | 0.00 | 0.00 | 0.00 | 28 | 1008.5 |
| 20260504192829 | 18 | 286 | 4.8 | 22.5 | 0.00 | 0.00 | 0.00 | 28 | 1008.4 |
| 20260504192731 | 18 | 96 | 6.4 | 22.5 | 0.00 | 0.00 | 0.00 | 28 | 1008.5 |
| 20260504192645 | 18 | 30 | 3.2 | 22.5 | 0.00 | 0.00 | 0.00 | 28 | 1008.4 |
| 20260504192532 | 18 | 355 | 4.8 | 22.5 | 0.00 | 0.00 | 0.00 | 28 | 1008.3 |
| 20260504192440 | 18 | 285 | 4.8 | 22.5 | 0.00 | 0.00 | 0.00 | 28 | 1008.3 |
| 20260504192342 | 18 | 13 | 4.8 | 22.5 | 0.00 | 0.00 | 0.00 | 29 | 1008.3 |
| 20260504192230 | 18 | 327 | 8.0 | 22.5 | 0.00 | 0.00 | 0.00 | 29 | 1008.4 |
| 20260504192132 | 18 | 63 | 14.5 | 22.5 | 0.00 | 0.00 | 0.00 | 28 | 1008.5 |
| 20260504192025 | 18 | 104 | 14.5 | 22.5 | 0.00 | 0.00 | 0.00 | 28 | 1008.6 |
| 20260504191928 | 19 | 140 | 11.3 | 20.9 | 0.00 | 0.00 | 0.00 | 27 | 1008.4 |
| 20260504191840 | 19 | 90 | 12.9 | 20.9 | 0.00 | 0.00 | 0.00 | 26 | 1008.2 |
| 20260504191741 | 19 | 148 | 11.3 | 20.9 | 0.00 | 0.00 | 0.00 | 25 | 1008.0 |
| 20260504191717 | 19 | 146 | 8.0 | 20.9 | 0.00 | 0.00 | 0.00 | 24 | 1008.0 |
| 20260504191437 | 19 | 120 | 8.0 | 20.9 | 0.00 | 0.00 | 0.00 | 24 | 1007.8 |
| 20260504191318 | 20 | 180 | 11.3 | 20.9 | 0.00 | 0.00 | 0.00 | 23 | 1007.7 |
| 20260504191226 | 20 | 119 | 9.7 | 20.9 | 0.00 | 0.00 | 0.00 | 23 | 1007.7 |
| 20260504191132 | 20 | 134 | 11.3 | 20.9 | 0.00 | 0.00 | 0.00 | 23 | 1007.7 |
| 20260504191025 | 20 | 104 | 12.9 | 20.9 | 0.00 | 0.00 | 0.00 | 23 | 1007.6 |
| 20260504190927 | 20 | 99 | 8.0 | 20.9 | 0.00 | 0.00 | 0.00 | 23 | 1007.6 |
| 20260504190842 | 20 | 130 | 4.8 | 12.9 | 0.00 | 0.00 | 0.00 | 22 | 1007.6 |
| 20260504190738 | 20 | 55 | 3.2 | 12.9 | 0.00 | 0.00 | 0.00 | 22 | 1007.6 |
| 20260504190627 | 20 | 17 | 3.2 | 12.9 | 0.00 | 0.00 | 0.00 | 22 | 1007.5 |
| 20260504190529 | 20 | 329 | 3.2 | 12.9 | 0.00 | 0.00 | 0.00 | 22 | 1007.4 |
| 20260504190417 | 20 | 315 | 3.2 | 12.9 | 0.00 | 0.00 | 0.00 | 22 | 1007.4 |
| 20260504190321 | 20 | 88 | 4.8 | 12.9 | 0.00 | 0.00 | 0.00 | 21 | 1007.6 |
| 20260504190302 | 20 | 81 | 8.0 | 12.9 | 0.00 | 0.00 | 0.00 | 21 | 1007.5 |
| 20260504190254 | 20 | 82 | 8.0 | 12.9 | 0.00 | 0.00 | 0.00 | 21 | 1007.5 |
| 20260504190221 | 20 | 117 | 6.4 | 12.9 | 0.00 | 0.00 | 0.00 | 21 | 1007.5 |
| 20260504185940 | 20 | 123 | 6.4 | 11.3 | 0.00 | 0.00 | 0.00 | 21 | 1007.6 |
| 20260504185846 | 20 | 127 | 6.4 | 11.3 | 0.00 | 0.00 | 0.00 | 21 | 1007.4 |
| 20260504185737 | 20 | 157 | 6.4 | 11.3 | 0.00 | 0.00 | 0.00 | 21 | 1007.4 |
| 20260504185631 | 20 | 151 | 4.8 | 11.3 | 0.00 | 0.00 | 0.00 | 21 | 1007.4 |
| 20260504185528 | 20 | 146 | 1.6 | 16.1 | 0.00 | 0.00 | 0.00 | 20 | 1007.4 |
| 20260504185434 | 20 | 194 | 0.0 | 16.1 | 0.00 | 0.00 | 0.00 | 20 | 1007.4 |
| 20260504185317 | 20 | 279 | 0.0 | 17.7 | 0.00 | 0.00 | 0.00 | 20 | 1007.4 |
| 20260504185220 | 20 | 218 | 1.6 | 17.7 | 0.00 | 0.00 | 0.00 | 20 | 1007.3 |
| 20260504185127 | 20 | 215 | 4.8 | 17.7 | 0.00 | 0.00 | 0.00 | 20 | 1007.3 |
| 20260504185026 | 20 | 224 | 6.4 | 17.7 | 0.00 | 0.00 | 0.00 | 21 | 1007.3 |
| 20260504184937 | 20 | 291 | 6.4 | 17.7 | 0.00 | 0.00 | 0.00 | 21 | 1007.2 |
| 20260504184820 | 20 | 305 | 6.4 | 17.7 | 0.00 | 0.00 | 0.00 | 21 | 1007.2 |
| 20260504184740 | 20 | 296 | 8.0 | 17.7 | 0.00 | 0.00 | 0.00 | 21 | 1007.1 |
| 20260504184737 | 20 | 284 | 11.3 | 17.7 | 0.00 | 0.00 | 0.00 | 21 | 1007.1 |
| 20260504184723 | 20 | 271 | 11.3 | 17.7 | 0.00 | 0.00 | 0.00 | 20 | 1007.1 |
| 20260504184431 | 20 | 297 | 9.7 | 16.1 | 0.00 | 0.00 | 0.00 | 20 | 1007.0 |
| 20260504184320 | 20 | 283 | 9.7 | 16.1 | 0.00 | 0.00 | 0.00 | 19 | 1006.9 |
| 20260504184246 | 20 | 288 | 9.7 | 16.1 | 0.00 | 0.00 | 0.00 | 20 | 1006.9 |
| 20260504184127 | 20 | 298 | 9.7 | 16.1 | 0.00 | 0.00 | 0.00 | 20 | 1006.9 |
| 20260504184042 | 20 | 270 | 9.7 | 16.1 | 0.00 | 0.00 | 0.00 | 22 | 1007.0 |
| 20260504183927 | 20 | 296 | 6.4 | 17.7 | 0.00 | 0.00 | 0.00 | 22 | 1006.9 |
| 20260504183835 | 20 | 262 | 6.4 | 17.7 | 0.00 | 0.00 | 0.00 | 22 | 1006.9 |
| 20260504183742 | 20 | 243 | 6.4 | 17.7 | 0.00 | 0.00 | 0.00 | 22 | 1007.0 |
| 20260504183630 | 20 | 221 | 6.4 | 17.7 | 0.00 | 0.00 | 0.00 | 22 | 1007.0 |
| 20260504183520 | 20 | 214 | 4.8 | 24.1 | 0.00 | 0.00 | 0.00 | 22 | 1006.9 |
| 20260504183436 | 20 | 211 | 6.4 | 24.1 | 0.00 | 0.00 | 0.00 | 23 | 1006.9 |
| 20260504183319 | 20 | 205 | 8.0 | 24.1 | 0.00 | 0.00 | 0.00 | 22 | 1007.0 |
| 20260504183232 | 20 | 273 | 9.7 | 24.1 | 0.00 | 0.00 | 0.00 | 23 | 1007.0 |
| 20260504183223 | 20 | 269 | 8.0 | 24.1 | 0.00 | 0.00 | 0.00 | 22 | 1007.1 |
| 20260504183203 | 20 | 283 | 11.3 | 24.1 | 0.00 | 0.00 | 0.00 | 22 | 1007.2 |
| 20260504182939 | 20 | 285 | 11.3 | 24.1 | 0.00 | 0.00 | 0.00 | 21 | 1007.1 |
| 20260504182836 | 20 | 280 | 11.3 | 24.1 | 0.00 | 0.00 | 0.00 | 22 | 1007.2 |
| 20260504182720 | 21 | 234 | 14.5 | 24.1 | 0.00 | 0.00 | 0.00 | 21 | 1007.1 |
| 20260504182621 | 21 | 252 | 12.9 | 24.1 | 0.00 | 0.00 | 0.00 | 22 | 1007.1 |
| 20260504182538 | 21 | 227 | 9.7 | 24.1 | 0.00 | 0.00 | 0.00 | 22 | 1007.2 |
| 20260504182443 | 21 | 236 | 8.0 | 24.1 | 0.00 | 0.00 | 0.00 | 23 | 1007.1 |
| 20260504182323 | 21 | 226 | 8.0 | 24.1 | 0.00 | 0.00 | 0.00 | 22 | 1007.0 |
| 20260504182238 | 21 | 285 | 11.3 | 24.1 | 0.00 | 0.00 | 0.00 | 22 | 1007.0 |
| 20260504182141 | 21 | 291 | 16.1 | 24.1 | 0.00 | 0.00 | 0.00 | 21 | 1007.1 |
| 20260504182035 | 21 | 302 | 16.1 | 24.1 | 0.00 | 0.00 | 0.00 | 21 | 1007.1 |
| 20260504181940 | 21 | 262 | 16.1 | 24.1 | 0.00 | 0.00 | 0.00 | 22 | 1007.1 |
| 20260504181827 | 21 | 263 | 9.7 | 20.9 | 0.00 | 0.00 | 0.00 | 22 | 1007.0 |
| 20260504181743 | 21 | 303 | 4.8 | 16.1 | 0.00 | 0.00 | 0.00 | 22 | 1007.0 |
| 20260504181733 | 21 | 236 | 8.0 | 16.1 | 0.00 | 0.00 | 0.00 | 22 | 1007.1 |
| 20260504181643 | 21 | 258 | 11.3 | 16.1 | 0.00 | 0.00 | 0.00 | 22 | 1007.1 |
| 20260504181441 | 21 | 263 | 9.7 | 16.1 | 0.00 | 0.00 | 0.00 | 23 | 1007.1 |
| 20260504181335 | 21 | 293 | 8.0 | 19.3 | 0.00 | 0.00 | 0.00 | 23 | 1007.1 |
| 20260504181242 | 21 | 284 | 6.4 | 19.3 | 0.00 | 0.00 | 0.00 | 22 | 1007.3 |
| 20260504181125 | 21 | 286 | 6.4 | 19.3 | 0.00 | 0.00 | 0.00 | 22 | 1007.2 |
| 20260504181027 | 21 | 266 | 9.7 | 19.3 | 0.00 | 0.00 | 0.00 | 22 | 1007.4 |
| 20260504180933 | 21 | 292 | 9.7 | 19.3 | 0.00 | 0.00 | 0.00 | 23 | 1007.2 |
| 20260504180824 | 21 | 294 | 8.0 | 19.3 | 0.00 | 0.00 | 0.00 | 23 | 1007.4 |
| 20260504180736 | 21 | 5 | 8.0 | 19.3 | 0.00 | 0.00 | 0.00 | 23 | 1007.4 |
| 20260504180631 | 21 | 291 | 11.3 | 19.3 | 0.00 | 0.00 | 0.00 | 22 | 1007.3 |
| 20260504180535 | 21 | 294 | 11.3 | 19.3 | 0.00 | 0.00 | 0.00 | 22 | 1007.3 |
| 20260504180442 | 21 | 333 | 9.7 | 14.5 | 0.00 | 0.00 | 0.00 | 22 | 1007.4 |
| 20260504180336 | 21 | 309 | 8.0 | 14.5 | 0.00 | 0.00 | 0.00 | 23 | 1007.4 |
| 20260504180304 | 21 | 277 | 8.0 | 14.5 | 0.00 | 0.00 | 0.00 | 22 | 1007.4 |
| 20260504180256 | 21 | 280 | 4.8 | 16.1 | 0.00 | 0.00 | 0.00 | 24 | 1007.4 |
| 20260504180224 | 21 | 142 | 3.2 | 16.1 | 0.00 | 0.00 | 0.00 | 23 | 1007.5 |
| 20260504175937 | 21 | 252 | 4.8 | 16.1 | 0.00 | 0.00 | 0.00 | 24 | 1007.4 |
| 20260504175843 | 20 | 190 | 3.2 | 16.1 | 0.00 | 0.00 | 0.00 | 24 | 1007.4 |
| 20260504175734 | 20 | 202 | 3.2 | 16.1 | 0.00 | 0.00 | 0.00 | 23 | 1007.4 |
| 20260504175629 | 20 | 70 | 3.2 | 16.1 | 0.00 | 0.00 | 0.00 | 23 | 1007.5 |
| 20260504175537 | 20 | 147 | 4.8 | 16.1 | 0.00 | 0.00 | 0.00 | 24 | 1007.4 |
| 20260504175431 | 20 | 150 | 8.0 | 16.1 | 0.00 | 0.00 | 0.00 | 23 | 1007.4 |
| 20260504175343 | 20 | 182 | 11.3 | 16.1 | 0.00 | 0.00 | 0.00 | 23 | 1007.4 |
| 20260504175218 | 20 | 153 | 9.7 | 17.7 | 0.00 | 0.00 | 0.00 | 23 | 1007.5 |
| 20260504175127 | 21 | 152 | 8.0 | 14.5 | 0.00 | 0.00 | 0.00 | 22 | 1007.5 |
| 20260504175042 | 21 | 167 | 6.4 | 14.5 | 0.00 | 0.00 | 0.00 | 23 | 1007.6 |
| 20260504174942 | 21 | 160 | 4.8 | 14.5 | 0.00 | 0.00 | 0.00 | 23 | 1007.6 |
| 20260504174837 | 21 | 247 | 6.4 | 14.5 | 0.00 | 0.00 | 0.00 | 23 | 1007.6 |
| 20260504174751 | 21 | 143 | 8.0 | 14.5 | 0.00 | 0.00 | 0.00 | 23 | 1007.6 |
| 20260504174743 | 21 | 313 | 6.4 | 14.5 | 0.00 | 0.00 | 0.00 | 23 | 1007.7 |
| 20260504174723 | 21 | 257 | 6.4 | 14.5 | 0.00 | 0.00 | 0.00 | 23 | 1007.7 |
| 20260504174431 | 20 | 221 | 6.4 | 20.9 | 0.00 | 0.00 | 0.00 | 23 | 1007.7 |
| 20260504174327 | 20 | 283 | 4.8 | 22.5 | 0.00 | 0.00 | 0.00 | 23 | 1007.7 |
| 20260504174225 | 20 | 295 | 1.6 | 22.5 | 0.00 | 0.00 | 0.00 | 22 | 1007.7 |
| 20260504174118 | 20 | 252 | 3.2 | 22.5 | 0.00 | 0.00 | 0.00 | 22 | 1007.7 |
| 20260504174022 | 20 | 261 | 6.4 | 22.5 | 0.00 | 0.00 | 0.00 | 22 | 1007.7 |
| 20260504173921 | 20 | 297 | 9.7 | 22.5 | 0.00 | 0.00 | 0.00 | 22 | 1007.8 |
| 20260504173837 | 20 | 275 | 11.3 | 22.5 | 0.00 | 0.00 | 0.00 | 22 | 1007.9 |
| 20260504173716 | 20 | 211 | 11.3 | 22.5 | 0.00 | 0.00 | 0.00 | 22 | 1007.9 |
| 20260504173632 | 21 | 283 | 14.5 | 22.5 | 0.00 | 0.00 | 0.00 | 22 | 1007.9 |
| 20260504173519 | 21 | 283 | 14.5 | 22.5 | 0.00 | 0.00 | 0.00 | 22 | 1007.8 |
| 20260504173432 | 21 | 292 | 9.7 | 20.9 | 0.00 | 0.00 | 0.00 | 22 | 1007.9 |
| 20260504173324 | 20 | 285 | 8.0 | 20.9 | 0.00 | 0.00 | 0.00 | 23 | 1007.9 |
| 20260504173254 | 20 | 274 | 9.7 | 22.5 | 0.00 | 0.00 | 0.00 | 22 | 1007.9 |
| 20260504173242 | 20 | 258 | 8.0 | 22.5 | 0.00 | 0.00 | 0.00 | 23 | 1007.9 |
| 20260504173202 | 20 | 200 | 9.7 | 22.5 | 0.00 | 0.00 | 0.00 | 23 | 1008.0 |
| 20260504172928 | 20 | 299 | 9.7 | 22.5 | 0.00 | 0.00 | 0.00 | 22 | 1008.0 |
| 20260504172842 | 20 | 277 | 4.8 | 22.5 | 0.00 | 0.00 | 0.00 | 23 | 1007.9 |
| 20260504172719 | 20 | 224 | 8.0 | 22.5 | 0.00 | 0.00 | 0.00 | 23 | 1008.0 |
| 20260504172624 | 20 | 226 | 12.9 | 22.5 | 0.00 | 0.00 | 0.00 | 23 | 1008.0 |
| 20260504172524 | 20 | 290 | 14.5 | 22.5 | 0.00 | 0.00 | 0.00 | 22 | 1007.9 |
| 20260504172421 | 20 | 284 | 16.1 | 20.9 | 0.00 | 0.00 | 0.00 | 22 | 1007.9 |
| 20260504172334 | 20 | 251 | 12.9 | 22.5 | 0.00 | 0.00 | 0.00 | 22 | 1007.9 |
| 20260504172228 | 20 | 258 | 8.0 | 20.9 | 0.00 | 0.00 | 0.00 | 23 | 1007.9 |
| 20260504172123 | 20 | 200 | 6.4 | 20.9 | 0.00 | 0.00 | 0.00 | 22 | 1007.9 |
| 20260504172041 | 20 | 223 | 6.4 | 20.9 | 0.00 | 0.00 | 0.00 | 22 | 1007.9 |
| 20260504171919 | 20 | 148 | 8.0 | 20.9 | 0.00 | 0.00 | 0.00 | 22 | 1008.0 |
| 20260504171843 | 20 | 171 | 9.7 | 20.9 | 0.00 | 0.00 | 0.00 | 22 | 1008.0 |
| 20260504171725 | 20 | 186 | 11.3 | 20.9 | 0.00 | 0.00 | 0.00 | 21 | 1008.0 |
| 20260504171722 | 21 | 195 | 11.3 | 22.5 | 0.00 | 0.00 | 0.00 | 21 | 1008.1 |
| 20260504171713 | 21 | 198 | 11.3 | 17.7 | 0.00 | 0.00 | 0.00 | 22 | 1008.1 |
| 20260504171428 | 21 | 184 | 11.3 | 17.7 | 0.00 | 0.00 | 0.00 | 21 | 1008.0 |
| 20260504171343 | 20 | 241 | 9.7 | 16.1 | 0.00 | 0.00 | 0.00 | 22 | 1007.9 |
| 20260504171223 | 20 | 270 | 8.0 | 12.9 | 0.00 | 0.00 | 0.00 | 23 | 1007.9 |
| 20260504171144 | 20 | 178 | 3.2 | 29.0 | 0.00 | 0.00 | 0.00 | 24 | 1007.9 |
| 20260504171037 | 20 | 241 | 1.6 | 29.0 | 0.00 | 0.00 | 0.00 | 24 | 1007.9 |
| 20260504170921 | 20 | 289 | 1.6 | 29.0 | 0.00 | 0.00 | 0.00 | 23 | 1007.9 |
| 20260504170831 | 20 | 298 | 3.2 | 29.0 | 0.00 | 0.00 | 0.00 | 23 | 1007.9 |
| 20260504170739 | 20 | 230 | 6.4 | 29.0 | 0.00 | 0.00 | 0.00 | 23 | 1008.0 |
| 20260504170642 | 20 | 232 | 8.0 | 29.0 | 0.00 | 0.00 | 0.00 | 23 | 1008.1 |
| 20260504170524 | 20 | 221 | 8.0 | 29.0 | 0.00 | 0.00 | 0.00 | 23 | 1008.0 |
| 20260504170431 | 20 | 184 | 11.3 | 29.0 | 0.00 | 0.00 | 0.00 | 23 | 1008.0 |
| 20260504170333 | 20 | 153 | 16.1 | 29.0 | 0.00 | 0.00 | 0.00 | 22 | 1008.0 |
| 20260504170257 | 20 | 171 | 14.5 | 19.3 | 0.00 | 0.00 | 0.00 | 23 | 1007.9 |
| 20260504170226 | 20 | 179 | 11.3 | 19.3 | 0.00 | 0.00 | 0.00 | 23 | 1007.9 |
| 20260504160424 | 18 | 215 | 8.0 | 14.5 | 0.00 | 0.00 | 0.00 | 24 | 1008.6 |
| 20260504160342 | 18 | 203 | 6.4 | 17.7 | 0.00 | 0.00 | 0.00 | 24 | 1008.6 |
| 20260504160258 | 18 | 201 | 8.0 | 17.7 | 0.00 | 0.00 | 0.00 | 25 | 1008.6 |
| 20260504160253 | 18 | 202 | 8.0 | 17.7 | 0.00 | 0.00 | 0.00 | 25 | 1008.6 |
| 20260504160219 | 18 | 140 | 6.4 | 17.7 | 0.00 | 0.00 | 0.00 | 24 | 1008.6 |